| time (UTC) | temp C | wind direction | speed KPH | gust KPH | rain 1hr cm | rain 24hr cm | rain mn cm | humidity % | barometer mb |
| 20260507235204 | 12 | 228 | 6.4 | 8.0 | 0.00 | 0.00 | 0.00 | 80 | 1013.1 |
| 20260507235104 | 12 | 227 | 6.4 | 9.7 | 0.00 | 0.00 | 0.00 | 80 | 1013.2 |
| 20260507235004 | 12 | 226 | 6.4 | 9.7 | 0.00 | 0.00 | 0.00 | 80 | 1013.1 |
| 20260507234903 | 12 | 225 | 6.4 | 11.3 | 0.00 | 0.00 | 0.00 | 80 | 1013.1 |
| 20260507234804 | 12 | 224 | 6.4 | 11.3 | 0.00 | 0.00 | 0.00 | 80 | 1013.1 |
| 20260507234707 | 12 | 224 | 8.0 | 11.3 | 0.00 | 0.00 | 0.00 | 80 | 1013.2 |
| 20260507234604 | 12 | 224 | 8.0 | 11.3 | 0.00 | 0.00 | 0.00 | 79 | 1013.2 |
| 20260507234504 | 12 | 224 | 8.0 | 11.3 | 0.00 | 0.00 | 0.00 | 79 | 1013.3 |
| 20260507234416 | 12 | 225 | 8.0 | 11.3 | 0.00 | 0.00 | 0.00 | 79 | 1013.2 |
| 20260507234204 | 12 | 227 | 6.4 | 11.3 | 0.00 | 0.00 | 0.00 | 79 | 1013.1 |
| 20260507234104 | 12 | 227 | 6.4 | 11.3 | 0.00 | 0.00 | 0.00 | 79 | 1013.2 |
| 20260507234004 | 12 | 228 | 6.4 | 11.3 | 0.00 | 0.00 | 0.00 | 79 | 1013.2 |
| 20260507233904 | 12 | 230 | 4.8 | 11.3 | 0.00 | 0.00 | 0.00 | 78 | 1013.2 |
| 20260507233804 | 12 | 232 | 3.2 | 11.3 | 0.00 | 0.00 | 0.00 | 78 | 1013.2 |
| 20260507233704 | 12 | 236 | 3.2 | 9.7 | 0.00 | 0.00 | 0.00 | 78 | 1013.3 |
| 20260507233504 | 12 | 249 | 1.6 | 6.4 | 0.00 | 0.00 | 0.00 | 78 | 1013.2 |
| 20260507233407 | 12 | 253 | 1.6 | 6.4 | 0.00 | 0.00 | 0.00 | 78 | 1013.1 |
| 20260507233304 | 13 | 246 | 1.6 | 8.0 | 0.00 | 0.00 | 0.00 | 78 | 1013.2 |
| 20260507233204 | 13 | 239 | 1.6 | 9.7 | 0.00 | 0.00 | 0.00 | 78 | 1013.1 |
| 20260507233114 | 13 | 237 | 1.6 | 11.3 | 0.00 | 0.00 | 0.00 | 78 | 1013.1 |
| 20260507233004 | 13 | 233 | 3.2 | 11.3 | 0.00 | 0.00 | 0.00 | 77 | 1013.2 |
| 20260507232904 | 13 | 235 | 3.2 | 11.3 | 0.00 | 0.00 | 0.00 | 78 | 1013.2 |
| 20260507232804 | 13 | 237 | 4.8 | 11.3 | 0.00 | 0.00 | 0.00 | 77 | 1013.1 |
| 20260507232704 | 13 | 237 | 4.8 | 11.3 | 0.00 | 0.00 | 0.00 | 77 | 1013.1 |
| 20260507232603 | 13 | 237 | 4.8 | 11.3 | 0.00 | 0.00 | 0.00 | 78 | 1013.2 |
| 20260507232505 | 13 | 233 | 4.8 | 11.3 | 0.00 | 0.00 | 0.00 | 78 | 1013.2 |
| 20260507232405 | 13 | 230 | 6.4 | 11.3 | 0.00 | 0.00 | 0.00 | 78 | 1013.1 |
| 20260507232306 | 13 | 228 | 6.4 | 12.9 | 0.00 | 0.00 | 0.00 | 79 | 1013.2 |
| 20260507232204 | 13 | 227 | 6.4 | 12.9 | 0.00 | 0.00 | 0.00 | 79 | 1013.2 |
| 20260507232108 | 12 | 226 | 6.4 | 12.9 | 0.00 | 0.00 | 0.00 | 79 | 1013.2 |
| 20260507232005 | 12 | 225 | 8.0 | 12.9 | 0.00 | 0.00 | 0.00 | 80 | 1013.3 |
| 20260507231904 | 12 | 223 | 8.0 | 12.9 | 0.00 | 0.00 | 0.00 | 80 | 1013.3 |
| 20260507231816 | 12 | 222 | 8.0 | 12.9 | 0.00 | 0.00 | 0.00 | 80 | 1013.3 |
| 20260507231604 | 12 | 221 | 9.7 | 12.9 | 0.00 | 0.00 | 0.00 | 80 | 1013.1 |
| 20260507231504 | 12 | 221 | 9.7 | 12.9 | 0.00 | 0.00 | 0.00 | 80 | 1013.2 |
| 20260507231404 | 12 | 221 | 9.7 | 12.9 | 0.00 | 0.00 | 0.00 | 80 | 1013.4 |
| 20260507231304 | 12 | 222 | 9.7 | 12.9 | 0.00 | 0.00 | 0.00 | 80 | 1013.3 |
| 20260507231204 | 12 | 223 | 9.7 | 12.9 | 0.00 | 0.00 | 0.00 | 79 | 1013.4 |
| 20260507231104 | 12 | 223 | 9.7 | 12.9 | 0.00 | 0.00 | 0.00 | 79 | 1013.3 |
| 20260507230804 | 12 | 224 | 9.7 | 12.9 | 0.00 | 0.00 | 0.00 | 79 | 1013.3 |
| 20260507230703 | 12 | 224 | 8.0 | 12.9 | 0.00 | 0.00 | 0.00 | 79 | 1013.3 |
| 20260507230605 | 12 | 224 | 8.0 | 12.9 | 0.00 | 0.00 | 0.00 | 79 | 1013.3 |
| 20260507230505 | 12 | 224 | 8.0 | 11.3 | 0.00 | 0.00 | 0.00 | 79 | 1013.3 |
| 20260507230207 | 12 | 224 | 6.4 | 11.3 | 0.00 | 0.00 | 0.00 | 79 | 1013.2 |
| 20260507230104 | 13 | 224 | 6.4 | 11.3 | 0.00 | 0.00 | 0.00 | 79 | 1013.1 |
| 20260507225915 | 13 | 225 | 4.8 | 8.0 | 0.00 | 0.00 | 0.00 | 78 | 1013.1 |
| 20260507225804 | 13 | 225 | 4.8 | 8.0 | 0.00 | 0.00 | 0.00 | 78 | 1013.2 |
| 20260507225705 | 13 | 225 | 4.8 | 8.0 | 0.00 | 0.00 | 0.00 | 78 | 1013.2 |
| 20260507225604 | 13 | 226 | 4.8 | 8.0 | 0.00 | 0.00 | 0.00 | 78 | 1013.2 |
| 20260507225505 | 13 | 225 | 4.8 | 8.0 | 0.00 | 0.00 | 0.00 | 78 | 1013.3 |
| 20260507225405 | 13 | 225 | 4.8 | 6.4 | 0.00 | 0.00 | 0.00 | 78 | 1013.2 |
| 20260507225306 | 13 | 225 | 4.8 | 6.4 | 0.00 | 0.00 | 0.00 | 78 | 1013.1 |
| 20260507225204 | 13 | 225 | 4.8 | 6.4 | 0.00 | 0.00 | 0.00 | 78 | 1013.1 |
| 20260507225104 | 13 | 226 | 4.8 | 8.0 | 0.00 | 0.00 | 0.00 | 78 | 1013.1 |
| 20260507224804 | 13 | 223 | 4.8 | 11.3 | 0.00 | 0.00 | 0.00 | 78 | 1013.1 |
| 20260507224705 | 13 | 221 | 6.4 | 11.3 | 0.00 | 0.00 | 0.00 | 78 | 1013.0 |
| 20260507224615 | 13 | 220 | 6.4 | 11.3 | 0.00 | 0.00 | 0.00 | 78 | 1013.0 |
| 20260507224505 | 13 | 221 | 6.4 | 11.3 | 0.00 | 0.00 | 0.00 | 78 | 1013.1 |
| 20260507224404 | 13 | 221 | 6.4 | 11.3 | 0.00 | 0.00 | 0.00 | 78 | 1013.1 |
| 20260507224304 | 13 | 220 | 8.0 | 11.3 | 0.00 | 0.00 | 0.00 | 78 | 1013.1 |
| 20260507224205 | 13 | 220 | 8.0 | 11.3 | 0.00 | 0.00 | 0.00 | 78 | 1013.1 |
| 20260507224104 | 13 | 220 | 8.0 | 11.3 | 0.00 | 0.00 | 0.00 | 78 | 1013.0 |
| 20260507224005 | 13 | 220 | 8.0 | 11.3 | 0.00 | 0.00 | 0.00 | 78 | 1013.1 |
| 20260507223804 | 13 | 221 | 8.0 | 11.3 | 0.00 | 0.00 | 0.00 | 78 | 1013.1 |
| 20260507223704 | 13 | 223 | 8.0 | 11.3 | 0.00 | 0.00 | 0.00 | 78 | 1013.1 |
| 20260507223609 | 13 | 225 | 8.0 | 11.3 | 0.00 | 0.00 | 0.00 | 77 | 1013.1 |
| 20260507223504 | 13 | 225 | 8.0 | 11.3 | 0.00 | 0.00 | 0.00 | 77 | 1013.0 |
| 20260507223404 | 13 | 227 | 6.4 | 11.3 | 0.00 | 0.00 | 0.00 | 77 | 1013.0 |
| 20260507223317 | 13 | 229 | 6.4 | 11.3 | 0.00 | 0.00 | 0.00 | 77 | 1013.0 |
| 20260507223204 | 13 | 232 | 6.4 | 11.3 | 0.00 | 0.00 | 0.00 | 77 | 1013.0 |
| 20260507223104 | 13 | 236 | 4.8 | 11.3 | 0.00 | 0.00 | 0.00 | 77 | 1013.1 |
| 20260507223005 | 13 | 239 | 4.8 | 11.3 | 0.00 | 0.00 | 0.00 | 77 | 1013.0 |
| 20260507222904 | 13 | 243 | 4.8 | 11.3 | 0.00 | 0.00 | 0.00 | 77 | 1013.0 |
| 20260507222804 | 13 | 248 | 3.2 | 9.7 | 0.00 | 0.00 | 0.00 | 77 | 1013.0 |
| 20260507222704 | 13 | 248 | 3.2 | 9.7 | 0.00 | 0.00 | 0.00 | 77 | 1013.1 |
| 20260507222603 | 13 | 248 | 3.2 | 6.4 | 0.00 | 0.00 | 0.00 | 77 | 1013.0 |
| 20260507222505 | 13 | 247 | 3.2 | 6.4 | 0.00 | 0.00 | 0.00 | 77 | 1013.0 |
| 20260507222404 | 13 | 243 | 3.2 | 6.4 | 0.00 | 0.00 | 0.00 | 77 | 1012.9 |
| 20260507222307 | 13 | 237 | 3.2 | 6.4 | 0.00 | 0.00 | 0.00 | 77 | 1012.8 |
| 20260507222204 | 13 | 231 | 3.2 | 6.4 | 0.00 | 0.00 | 0.00 | 76 | 1012.8 |
| 20260507222104 | 13 | 226 | 3.2 | 9.7 | 0.00 | 0.00 | 0.00 | 76 | 1013.0 |
| 20260507222015 | 13 | 221 | 4.8 | 9.7 | 0.00 | 0.00 | 0.00 | 76 | 1013.0 |
| 20260507221904 | 13 | 218 | 4.8 | 9.7 | 0.00 | 0.00 | 0.00 | 76 | 1012.8 |
| 20260507221704 | 13 | 216 | 6.4 | 11.3 | 0.00 | 0.00 | 0.00 | 77 | 1012.8 |
| 20260507221603 | 13 | 216 | 6.4 | 11.3 | 0.00 | 0.00 | 0.00 | 77 | 1012.8 |
| 20260507221404 | 13 | 214 | 8.0 | 12.9 | 0.00 | 0.00 | 0.00 | 77 | 1012.9 |
| 20260507221304 | 13 | 213 | 8.0 | 12.9 | 0.00 | 0.00 | 0.00 | 77 | 1012.9 |
| 20260507221204 | 13 | 213 | 8.0 | 12.9 | 0.00 | 0.00 | 0.00 | 77 | 1012.8 |
| 20260507221012 | 13 | 211 | 9.7 | 12.9 | 0.00 | 0.00 | 0.00 | 77 | 1012.8 |
| 20260507220704 | 13 | 212 | 8.0 | 12.9 | 0.00 | 0.00 | 0.00 | 76 | 1012.8 |
| 20260507220604 | 13 | 213 | 8.0 | 12.9 | 0.00 | 0.00 | 0.00 | 76 | 1012.8 |
| 20260507220512 | 13 | 215 | 6.4 | 12.9 | 0.00 | 0.00 | 0.00 | 76 | 1012.8 |
| 20260507220404 | 13 | 218 | 6.4 | 12.9 | 0.00 | 0.00 | 0.00 | 76 | 1012.9 |
| 20260507220304 | 13 | 221 | 6.4 | 12.9 | 0.00 | 0.00 | 0.00 | 76 | 1012.9 |
| 20260507220215 | 13 | 228 | 4.8 | 11.3 | 0.00 | 0.00 | 0.00 | 76 | 1012.9 |
| 20260507220006 | 14 | 253 | 3.2 | 8.0 | 0.00 | 0.00 | 0.00 | 76 | 1012.8 |
| 20260507215904 | 14 | 272 | 3.2 | 6.4 | 0.00 | 0.00 | 0.00 | 76 | 1012.8 |
| 20260507215804 | 14 | 288 | 3.2 | 8.0 | 0.00 | 0.00 | 0.00 | 76 | 1012.8 |
| 20260507215704 | 14 | 298 | 3.2 | 8.0 | 0.00 | 0.00 | 0.00 | 76 | 1012.9 |
| 20260507215604 | 14 | 305 | 3.2 | 8.0 | 0.00 | 0.00 | 0.00 | 76 | 1012.8 |
| 20260507215104 | 14 | 315 | 1.6 | 8.0 | 0.00 | 0.00 | 0.00 | 75 | 1012.8 |
| 20260507214907 | 14 | 308 | 1.6 | 8.0 | 0.00 | 0.00 | 0.00 | 75 | 1012.7 |
| 20260507214805 | 14 | 297 | 1.6 | 8.0 | 0.00 | 0.00 | 0.00 | 75 | 1012.7 |
| 20260507214614 | 14 | 273 | 0.0 | 3.2 | 0.00 | 0.00 | 0.00 | 75 | 1012.7 |
| 20260507214504 | 14 | 275 | 0.0 | 3.2 | 0.00 | 0.00 | 0.00 | 75 | 1012.7 |
| 20260507214403 | 14 | 278 | 0.0 | 3.2 | 0.00 | 0.00 | 0.00 | 75 | 1012.6 |
| 20260507214204 | 14 | 276 | 1.6 | 3.2 | 0.00 | 0.00 | 0.00 | 75 | 1012.7 |
| 20260507214104 | 14 | 270 | 1.6 | 6.4 | 0.00 | 0.00 | 0.00 | 74 | 1012.6 |
| 20260507214005 | 14 | 263 | 1.6 | 9.7 | 0.00 | 0.00 | 0.00 | 74 | 1012.6 |
| 20260507213904 | 15 | 253 | 3.2 | 9.7 | 0.00 | 0.00 | 0.00 | 75 | 1012.6 |
| 20260507213804 | 14 | 246 | 3.2 | 9.7 | 0.00 | 0.00 | 0.00 | 75 | 1012.6 |
| 20260507213704 | 15 | 239 | 3.2 | 11.3 | 0.00 | 0.00 | 0.00 | 74 | 1012.6 |
| 20260507213604 | 14 | 236 | 4.8 | 11.3 | 0.00 | 0.00 | 0.00 | 74 | 1012.6 |
| 20260507213504 | 14 | 232 | 4.8 | 11.3 | 0.00 | 0.00 | 0.00 | 74 | 1012.6 |
| 20260507213404 | 14 | 228 | 6.4 | 11.3 | 0.00 | 0.00 | 0.00 | 74 | 1012.7 |
| 20260507213312 | 14 | 226 | 6.4 | 11.3 | 0.00 | 0.00 | 0.00 | 75 | 1012.7 |
| 20260507213204 | 14 | 224 | 6.4 | 11.3 | 0.00 | 0.00 | 0.00 | 74 | 1012.7 |
| 20260507213103 | 14 | 222 | 6.4 | 11.3 | 0.00 | 0.00 | 0.00 | 74 | 1012.7 |
| 20260507213015 | 14 | 221 | 6.4 | 11.3 | 0.00 | 0.00 | 0.00 | 74 | 1012.7 |
| 20260507212905 | 14 | 220 | 6.4 | 11.3 | 0.00 | 0.00 | 0.00 | 74 | 1012.7 |
| 20260507212804 | 14 | 220 | 4.8 | 11.3 | 0.00 | 0.00 | 0.00 | 74 | 1012.7 |
| 20260507212704 | 14 | 221 | 4.8 | 11.3 | 0.00 | 0.00 | 0.00 | 75 | 1012.7 |
| 20260507212604 | 14 | 223 | 4.8 | 11.3 | 0.00 | 0.00 | 0.00 | 74 | 1012.7 |
| 20260507212404 | 14 | 230 | 3.2 | 11.3 | 0.00 | 0.00 | 0.00 | 74 | 1012.6 |
| 20260507212307 | 15 | 235 | 3.2 | 8.0 | 0.00 | 0.00 | 0.00 | 74 | 1012.7 |
| 20260507212203 | 15 | 240 | 3.2 | 8.0 | 0.00 | 0.00 | 0.00 | 74 | 1012.7 |
| 20260507211904 | 15 | 252 | 1.6 | 6.4 | 0.00 | 0.00 | 0.00 | 74 | 1012.6 |
| 20260507211714 | 15 | 261 | 1.6 | 6.4 | 0.00 | 0.00 | 0.00 | 74 | 1012.5 |
| 20260507211604 | 15 | 269 | 1.6 | 4.8 | 0.00 | 0.00 | 0.00 | 74 | 1012.5 |
| 20260507211505 | 15 | 274 | 1.6 | 4.8 | 0.00 | 0.00 | 0.00 | 74 | 1012.6 |
| 20260507211304 | 15 | 276 | 1.6 | 3.2 | 0.00 | 0.00 | 0.00 | 74 | 1012.5 |
| 20260507211204 | 15 | 274 | 1.6 | 4.8 | 0.00 | 0.00 | 0.00 | 74 | 1012.5 |
| 20260507211104 | 15 | 275 | 1.6 | 4.8 | 0.00 | 0.00 | 0.00 | 75 | 1012.5 |
| 20260507211004 | 15 | 275 | 1.6 | 4.8 | 0.00 | 0.00 | 0.00 | 75 | 1012.5 |
| 20260507210904 | 15 | 278 | 1.6 | 4.8 | 0.00 | 0.00 | 0.00 | 75 | 1012.5 |
| 20260507210804 | 14 | 284 | 1.6 | 4.8 | 0.00 | 0.00 | 0.00 | 75 | 1012.5 |
| 20260507210707 | 14 | 293 | 1.6 | 4.8 | 0.00 | 0.00 | 0.00 | 75 | 1012.6 |
| 20260507210504 | 14 | 311 | 3.2 | 4.8 | 0.00 | 0.00 | 0.00 | 75 | 1012.6 |
| 20260507210415 | 14 | 318 | 3.2 | 4.8 | 0.00 | 0.00 | 0.00 | 75 | 1012.7 |
| 20260507210304 | 14 | 328 | 3.2 | 6.4 | 0.00 | 0.00 | 0.00 | 75 | 1012.7 |
| 20260507210204 | 14 | 336 | 3.2 | 6.4 | 0.00 | 0.00 | 0.00 | 76 | 1012.6 |
| 20260507210005 | 14 | 348 | 3.2 | 8.0 | 0.00 | 0.00 | 0.00 | 76 | 1012.6 |
| 20260507205904 | 14 | 352 | 4.8 | 8.0 | 0.00 | 0.00 | 0.00 | 76 | 1012.6 |
| 20260507205804 | 14 | 352 | 4.8 | 8.0 | 0.00 | 0.00 | 0.00 | 75 | 1012.6 |
| 20260507205704 | 14 | 351 | 4.8 | 8.0 | 0.00 | 0.00 | 0.00 | 75 | 1012.5 |
| 20260507205604 | 14 | 352 | 4.8 | 8.0 | 0.00 | 0.00 | 0.00 | 76 | 1012.6 |
| 20260507205505 | 14 | 352 | 4.8 | 8.0 | 0.00 | 0.00 | 0.00 | 76 | 1012.6 |
| 20260507205408 | 14 | 352 | 4.8 | 8.0 | 0.00 | 0.00 | 0.00 | 76 | 1012.5 |
| 20260507205306 | 14 | 352 | 4.8 | 8.0 | 0.00 | 0.00 | 0.00 | 76 | 1012.6 |
| 20260507205203 | 14 | 353 | 6.4 | 8.0 | 0.00 | 0.00 | 0.00 | 76 | 1012.6 |
| 20260507205114 | 14 | 352 | 6.4 | 8.0 | 0.00 | 0.00 | 0.00 | 76 | 1012.5 |
| 20260507205004 | 14 | 350 | 6.4 | 8.0 | 0.00 | 0.00 | 0.00 | 77 | 1012.5 |
| 20260507204904 | 14 | 350 | 6.4 | 8.0 | 0.00 | 0.00 | 0.00 | 77 | 1012.5 |
| 20260507204804 | 14 | 351 | 6.4 | 8.0 | 0.00 | 0.00 | 0.00 | 76 | 1012.5 |
| 20260507204704 | 14 | 351 | 4.8 | 8.0 | 0.00 | 0.00 | 0.00 | 76 | 1012.4 |
| 20260507204604 | 14 | 348 | 4.8 | 8.0 | 0.00 | 0.00 | 0.00 | 76 | 1012.5 |
| 20260507204505 | 14 | 345 | 4.8 | 8.0 | 0.00 | 0.00 | 0.00 | 76 | 1012.5 |
| 20260507204404 | 14 | 341 | 4.8 | 8.0 | 0.00 | 0.00 | 0.00 | 76 | 1012.6 |
| 20260507204304 | 14 | 337 | 4.8 | 8.0 | 0.00 | 0.00 | 0.00 | 76 | 1012.5 |
| 20260507204203 | 14 | 332 | 4.8 | 8.0 | 0.00 | 0.00 | 0.00 | 76 | 1012.5 |
| 20260507204005 | 15 | 322 | 3.2 | 8.0 | 0.00 | 0.00 | 0.00 | 76 | 1012.4 |
| 20260507203904 | 15 | 318 | 3.2 | 6.4 | 0.00 | 0.00 | 0.00 | 75 | 1012.5 |
| 20260507203814 | 15 | 314 | 3.2 | 4.8 | 0.00 | 0.00 | 0.00 | 75 | 1012.4 |
| 20260507203704 | 15 | 310 | 3.2 | 4.8 | 0.00 | 0.00 | 0.00 | 75 | 1012.5 |
| 20260507203504 | 15 | 306 | 1.6 | 4.8 | 0.00 | 0.00 | 0.00 | 74 | 1012.4 |
| 20260507203404 | 15 | 304 | 1.6 | 4.8 | 0.00 | 0.00 | 0.00 | 74 | 1012.3 |
| 20260507203304 | 15 | 300 | 1.6 | 4.8 | 0.00 | 0.00 | 0.00 | 74 | 1012.3 |
| 20260507203204 | 15 | 294 | 0.0 | 4.8 | 0.00 | 0.00 | 0.00 | 74 | 1012.3 |
| 20260507203103 | 15 | 276 | 0.0 | 3.2 | 0.00 | 0.00 | 0.00 | 74 | 1012.2 |
| 20260507203004 | 15 | 263 | 0.0 | 3.2 | 0.00 | 0.00 | 0.00 | 74 | 1012.2 |
| 20260507202904 | 15 | 263 | 0.0 | 3.2 | 0.00 | 0.00 | 0.00 | 74 | 1012.2 |
| 20260507202804 | 15 | 263 | 0.0 | 3.2 | 0.00 | 0.00 | 0.00 | 74 | 1012.2 |
| 20260507202704 | 15 | 263 | 0.0 | 3.2 | 0.00 | 0.00 | 0.00 | 73 | 1012.1 |
| 20260507202603 | 15 | 264 | 0.0 | 3.2 | 0.00 | 0.00 | 0.00 | 73 | 1012.2 |
| 20260507202404 | 15 | 264 | 0.0 | 3.2 | 0.00 | 0.00 | 0.00 | 73 | 1012.1 |
| 20260507202306 | 15 | 264 | 0.0 | 3.2 | 0.00 | 0.00 | 0.00 | 73 | 1012.1 |
| 20260507202214 | 15 | 265 | 0.0 | 3.2 | 0.00 | 0.00 | 0.00 | 72 | 1012.1 |
| 20260507202104 | 15 | 262 | 0.0 | 1.6 | 0.00 | 0.00 | 0.00 | 72 | 1012.1 |
| 20260507201904 | 15 | 259 | 0.0 | 1.6 | 0.00 | 0.00 | 0.00 | 72 | 1011.9 |
| 20260507201804 | 15 | 249 | 0.0 | 3.2 | 0.00 | 0.00 | 0.00 | 71 | 1011.9 |
| 20260507201704 | 15 | 235 | 0.0 | 3.2 | 0.00 | 0.00 | 0.00 | 71 | 1011.9 |
| 20260507201604 | 15 | 225 | 1.6 | 4.8 | 0.00 | 0.00 | 0.00 | 71 | 1011.9 |
| 20260507201504 | 15 | 222 | 1.6 | 4.8 | 0.00 | 0.00 | 0.00 | 71 | 1011.9 |
| 20260507201403 | 15 | 222 | 1.6 | 4.8 | 0.00 | 0.00 | 0.00 | 71 | 1011.8 |
| 20260507201303 | 15 | 222 | 1.6 | 4.8 | 0.00 | 0.00 | 0.00 | 71 | 1011.9 |
| 20260507201206 | 15 | 219 | 1.6 | 4.8 | 0.00 | 0.00 | 0.00 | 71 | 1011.9 |
| 20260507201104 | 15 | 219 | 1.6 | 4.8 | 0.00 | 0.00 | 0.00 | 71 | 1011.8 |
| 20260507201004 | 15 | 219 | 1.6 | 4.8 | 0.00 | 0.00 | 0.00 | 70 | 1011.7 |
| 20260507200915 | 15 | 219 | 1.6 | 4.8 | 0.00 | 0.00 | 0.00 | 70 | 1011.7 |
| 20260507200804 | 15 | 218 | 1.6 | 4.8 | 0.00 | 0.00 | 0.00 | 70 | 1011.8 |
| 20260507200703 | 15 | 216 | 1.6 | 4.8 | 0.00 | 0.00 | 0.00 | 70 | 1011.7 |
| 20260507200604 | 15 | 214 | 1.6 | 4.8 | 0.00 | 0.00 | 0.00 | 70 | 1011.7 |
| 20260507200504 | 15 | 213 | 1.6 | 4.8 | 0.00 | 0.00 | 0.00 | 70 | 1011.7 |
| 20260507200304 | 15 | 210 | 1.6 | 4.8 | 0.00 | 0.00 | 0.00 | 70 | 1011.7 |
| 20260507200204 | 15 | 209 | 1.6 | 4.8 | 0.00 | 0.00 | 0.00 | 70 | 1011.8 |
| 20260507200104 | 15 | 207 | 1.6 | 4.8 | 0.00 | 0.00 | 0.00 | 70 | 1011.6 |
| 20260507200004 | 15 | 205 | 1.6 | 4.8 | 0.00 | 0.00 | 0.00 | 70 | 1011.7 |
| 20260507195904 | 15 | 200 | 1.6 | 4.8 | 0.00 | 0.00 | 0.00 | 70 | 1011.6 |
| 20260507195704 | 15 | 196 | 1.6 | 3.2 | 0.00 | 0.00 | 0.00 | 70 | 1011.5 |
| 20260507195505 | 15 | 192 | 0.0 | 3.2 | 0.00 | 0.00 | 0.00 | 70 | 1011.5 |
| 20260507195404 | 16 | 189 | 1.6 | 3.2 | 0.00 | 0.00 | 0.00 | 70 | 1011.5 |
| 20260507195307 | 16 | 188 | 1.6 | 4.8 | 0.00 | 0.00 | 0.00 | 70 | 1011.5 |
| 20260507195014 | 16 | 194 | 1.6 | 4.8 | 0.00 | 0.00 | 0.00 | 69 | 1011.5 |
| 20260507194904 | 16 | 194 | 1.6 | 4.8 | 0.00 | 0.00 | 0.00 | 69 | 1011.3 |
| 20260507194805 | 15 | 194 | 1.6 | 4.8 | 0.00 | 0.00 | 0.00 | 69 | 1011.4 |
| 20260507194704 | 16 | 198 | 1.6 | 4.8 | 0.00 | 0.00 | 0.00 | 69 | 1011.4 |
| 20260507194603 | 16 | 206 | 1.6 | 4.8 | 0.00 | 0.00 | 0.00 | 69 | 1011.4 |
| 20260507194504 | 16 | 210 | 1.6 | 4.8 | 0.00 | 0.00 | 0.00 | 69 | 1011.3 |
| 20260507194404 | 16 | 218 | 1.6 | 4.8 | 0.00 | 0.00 | 0.00 | 69 | 1011.4 |
| 20260507194204 | 16 | 196 | 1.6 | 6.4 | 0.00 | 0.00 | 0.00 | 69 | 1011.3 |
| 20260507194106 | 16 | 182 | 1.6 | 6.4 | 0.00 | 0.00 | 0.00 | 70 | 1011.2 |
| 20260507193904 | 16 | 171 | 1.6 | 6.4 | 0.00 | 0.00 | 0.00 | 69 | 1011.2 |
| 20260507193714 | 16 | 169 | 1.6 | 6.4 | 0.00 | 0.00 | 0.00 | 69 | 1011.2 |
| 20260507193604 | 16 | 167 | 3.2 | 8.0 | 0.00 | 0.00 | 0.00 | 69 | 1011.2 |
| 20260507193504 | 16 | 172 | 3.2 | 8.0 | 0.00 | 0.00 | 0.00 | 68 | 1011.1 |
| 20260507193404 | 16 | 173 | 3.2 | 8.0 | 0.00 | 0.00 | 0.00 | 68 | 1011.1 |
| 20260507193304 | 16 | 176 | 4.8 | 12.9 | 0.00 | 0.00 | 0.00 | 68 | 1011.0 |
| 20260507193204 | 16 | 179 | 4.8 | 12.9 | 0.00 | 0.00 | 0.00 | 68 | 1011.1 |
| 20260507193104 | 16 | 182 | 4.8 | 12.9 | 0.00 | 0.00 | 0.00 | 68 | 1011.0 |
| 20260507193004 | 16 | 182 | 4.8 | 12.9 | 0.00 | 0.00 | 0.00 | 68 | 1011.1 |
| 20260507192903 | 16 | 186 | 6.4 | 12.9 | 0.00 | 0.03 | 0.00 | 68 | 1011.0 |
| 20260507192804 | 16 | 188 | 6.4 | 12.9 | 0.00 | 0.03 | 0.00 | 68 | 1011.0 |
| 20260507192704 | 16 | 190 | 6.4 | 12.9 | 0.00 | 0.03 | 0.00 | 68 | 1011.0 |
| 20260507192505 | 16 | 191 | 8.0 | 12.9 | 0.00 | 0.03 | 0.00 | 68 | 1011.0 |
| 20260507192410 | 16 | 192 | 8.0 | 12.9 | 0.00 | 0.03 | 0.00 | 68 | 1010.9 |
| 20260507192306 | 16 | 194 | 8.0 | 12.9 | 0.00 | 0.03 | 0.00 | 68 | 1011.0 |
| 20260507192204 | 16 | 194 | 8.0 | 12.9 | 0.00 | 0.03 | 0.00 | 68 | 1011.0 |
| 20260507192115 | 16 | 195 | 8.0 | 12.9 | 0.00 | 0.03 | 0.00 | 68 | 1010.9 |
| 20260507192004 | 16 | 198 | 8.0 | 12.9 | 0.00 | 0.03 | 0.00 | 68 | 1010.9 |
| 20260507191903 | 16 | 198 | 8.0 | 12.9 | 0.00 | 0.03 | 0.00 | 68 | 1011.0 |
| 20260507191804 | 16 | 200 | 8.0 | 12.9 | 0.00 | 0.03 | 0.00 | 68 | 1010.9 |
| 20260507191704 | 16 | 201 | 8.0 | 12.9 | 0.00 | 0.03 | 0.00 | 68 | 1010.9 |
| 20260507191504 | 16 | 204 | 8.0 | 12.9 | 0.00 | 0.03 | 0.00 | 68 | 1010.8 |
| 20260507191404 | 16 | 206 | 8.0 | 12.9 | 0.00 | 0.03 | 0.00 | 68 | 1010.9 |
| 20260507191304 | 16 | 208 | 8.0 | 12.9 | 0.00 | 0.03 | 0.00 | 68 | 1010.9 |
| 20260507191205 | 16 | 211 | 8.0 | 12.9 | 0.00 | 0.05 | 0.00 | 67 | 1010.9 |
| 20260507191107 | 16 | 213 | 8.0 | 12.9 | 0.00 | 0.05 | 0.00 | 67 | 1010.8 |
| 20260507191004 | 16 | 215 | 6.4 | 12.9 | 0.00 | 0.05 | 0.00 | 67 | 1010.8 |
| 20260507190904 | 16 | 216 | 6.4 | 12.9 | 0.00 | 0.05 | 0.00 | 67 | 1010.9 |
| 20260507190814 | 16 | 218 | 6.4 | 12.9 | 0.00 | 0.05 | 0.00 | 67 | 1010.9 |
| 20260507190704 | 16 | 223 | 6.4 | 12.9 | 0.00 | 0.05 | 0.00 | 67 | 1010.8 |
| 20260507190604 | 16 | 225 | 6.4 | 12.9 | 0.00 | 0.05 | 0.00 | 67 | 1010.8 |
| 20260507190404 | 16 | 225 | 6.4 | 12.9 | 0.00 | 0.05 | 0.00 | 67 | 1010.7 |
| 20260507190304 | 16 | 222 | 6.4 | 12.9 | 0.00 | 0.05 | 0.00 | 67 | 1010.9 |
| 20260507190005 | 16 | 216 | 8.0 | 12.9 | 0.00 | 0.05 | 0.00 | 67 | 1010.8 |
| 20260507185904 | 16 | 215 | 8.0 | 12.9 | 0.00 | 0.05 | 0.00 | 67 | 1010.8 |
| 20260507185807 | 16 | 213 | 8.0 | 11.3 | 0.00 | 0.08 | 0.00 | 67 | 1010.8 |
| 20260507185704 | 16 | 211 | 8.0 | 11.3 | 0.00 | 0.08 | 0.00 | 67 | 1010.7 |
| 20260507185515 | 16 | 207 | 8.0 | 14.5 | 0.00 | 0.10 | 0.00 | 67 | 1010.7 |
| 20260507185405 | 16 | 206 | 8.0 | 14.5 | 0.00 | 0.10 | 0.00 | 67 | 1010.7 |
| 20260507185306 | 16 | 205 | 8.0 | 14.5 | 0.00 | 0.10 | 0.00 | 67 | 1010.7 |
| 20260507185104 | 16 | 205 | 8.0 | 14.5 | 0.00 | 0.10 | 0.00 | 67 | 1010.7 |
| 20260507185005 | 16 | 205 | 8.0 | 14.5 | 0.00 | 0.13 | 0.00 | 67 | 1010.7 |
| 20260507184904 | 16 | 205 | 9.7 | 14.5 | 0.00 | 0.13 | 0.00 | 67 | 1010.6 |
| 20260507184506 | 16 | 205 | 9.7 | 16.1 | 0.00 | 0.15 | 0.00 | 66 | 1010.7 |
| 20260507184404 | 16 | 205 | 9.7 | 16.1 | 0.00 | 0.15 | 0.00 | 66 | 1010.7 |
| 20260507184305 | 16 | 205 | 9.7 | 16.1 | 0.00 | 0.15 | 0.00 | 66 | 1010.7 |
| 20260507184214 | 16 | 206 | 9.7 | 16.1 | 0.00 | 0.15 | 0.00 | 66 | 1010.6 |
| 20260507184104 | 16 | 205 | 9.7 | 16.1 | 0.00 | 0.15 | 0.00 | 66 | 1010.6 |
| 20260507184004 | 16 | 206 | 9.7 | 16.1 | 0.00 | 0.15 | 0.00 | 66 | 1010.7 |
| 20260507183904 | 16 | 206 | 9.7 | 16.1 | 0.00 | 0.15 | 0.00 | 66 | 1010.6 |
| 20260507183804 | 16 | 207 | 9.7 | 16.1 | 0.00 | 0.15 | 0.00 | 66 | 1010.7 |
| 20260507183704 | 16 | 208 | 9.7 | 16.1 | 0.00 | 0.15 | 0.00 | 66 | 1010.6 |
| 20260507183604 | 16 | 207 | 8.0 | 14.5 | 0.00 | 0.18 | 0.00 | 66 | 1010.6 |
| 20260507183504 | 16 | 208 | 8.0 | 14.5 | 0.00 | 0.18 | 0.00 | 66 | 1010.6 |
| 20260507183404 | 16 | 209 | 8.0 | 14.5 | 0.00 | 0.20 | 0.00 | 66 | 1010.7 |
| 20260507183304 | 16 | 209 | 8.0 | 12.9 | 0.00 | 0.20 | 0.00 | 66 | 1010.7 |
| 20260507183104 | 16 | 211 | 6.4 | 11.3 | 0.00 | 0.23 | 0.00 | 65 | 1010.5 |
| 20260507183004 | 16 | 212 | 6.4 | 11.3 | 0.00 | 0.25 | 0.00 | 65 | 1010.6 |
| 20260507182915 | 16 | 213 | 6.4 | 11.3 | 0.00 | 0.25 | 0.00 | 65 | 1010.6 |
| 20260507182804 | 16 | 216 | 6.4 | 11.3 | 0.00 | 0.28 | 0.00 | 65 | 1010.6 |
| 20260507182704 | 16 | 217 | 4.8 | 11.3 | 0.00 | 0.28 | 0.00 | 65 | 1010.6 |
| 20260507182604 | 16 | 220 | 4.8 | 11.3 | 0.00 | 0.30 | 0.00 | 65 | 1010.5 |
| 20260507182505 | 17 | 220 | 4.8 | 11.3 | 0.00 | 0.30 | 0.00 | 65 | 1010.6 |
| 20260507182404 | 17 | 222 | 3.2 | 11.3 | 0.00 | 0.30 | 0.00 | 65 | 1010.5 |
| 20260507182306 | 17 | 226 | 3.2 | 8.0 | 0.00 | 0.33 | 0.00 | 65 | 1010.5 |
| 20260507182204 | 17 | 227 | 3.2 | 8.0 | 0.00 | 0.33 | 0.00 | 65 | 1010.5 |
| 20260507182104 | 17 | 232 | 3.2 | 8.0 | 0.00 | 0.33 | 0.00 | 65 | 1010.5 |
| 20260507182004 | 17 | 233 | 3.2 | 8.0 | 0.00 | 0.33 | 0.00 | 65 | 1010.4 |
| 20260507181907 | 17 | 237 | 1.6 | 8.0 | 0.00 | 0.33 | 0.00 | 65 | 1010.4 |
| 20260507181804 | 17 | 242 | 1.6 | 8.0 | 0.00 | 0.33 | 0.00 | 65 | 1010.4 |
| 20260507181704 | 17 | 250 | 1.6 | 4.8 | 0.00 | 0.33 | 0.00 | 65 | 1010.4 |
| 20260507181615 | 17 | 253 | 1.6 | 4.8 | 0.00 | 0.33 | 0.00 | 65 | 1010.4 |
| 20260507181504 | 17 | 260 | 1.6 | 4.8 | 0.00 | 0.33 | 0.00 | 65 | 1010.4 |
| 20260507181404 | 17 | 263 | 1.6 | 4.8 | 0.00 | 0.33 | 0.00 | 65 | 1010.3 |
| 20260507181203 | 16 | 278 | 1.6 | 4.8 | 0.00 | 0.33 | 0.00 | 65 | 1010.3 |
| 20260507181103 | 16 | 292 | 0.0 | 4.8 | 0.00 | 0.33 | 0.00 | 65 | 1010.2 |
| 20260507181004 | 16 | 311 | 0.0 | 3.2 | 0.00 | 0.33 | 0.00 | 64 | 1010.3 |
| 20260507180904 | 16 | 321 | 0.0 | 3.2 | 0.00 | 0.33 | 0.00 | 64 | 1010.3 |
| 20260507180804 | 17 | 322 | 0.0 | 3.2 | 0.00 | 0.33 | 0.00 | 64 | 1010.3 |
| 20260507180610 | 17 | 318 | 0.0 | 3.2 | 0.00 | 0.33 | 0.00 | 64 | 1010.3 |
| 20260507180504 | 17 | 316 | 0.0 | 3.2 | 0.00 | 0.33 | 0.00 | 64 | 1010.3 |
| 20260507180404 | 17 | 315 | 0.0 | 3.2 | 0.00 | 0.33 | 0.00 | 64 | 1010.3 |
| 20260507180316 | 17 | 315 | 0.0 | 3.2 | 0.00 | 0.33 | 0.00 | 63 | 1010.2 |
| 20260507180204 | 17 | 312 | 1.6 | 3.2 | 0.00 | 0.33 | 0.00 | 63 | 1010.3 |
| 20260507180104 | 17 | 297 | 1.6 | 4.8 | 0.00 | 0.33 | 0.00 | 63 | 1010.2 |
| 20260507180005 | 17 | 277 | 1.6 | 4.8 | 0.00 | 0.33 | 0.00 | 63 | 1010.2 |
| 20260507175904 | 17 | 266 | 1.6 | 6.4 | 0.00 | 0.33 | 0.00 | 63 | 1010.1 |
| 20260507175805 | 17 | 254 | 1.6 | 6.4 | 0.00 | 0.33 | 0.00 | 63 | 1010.1 |
| 20260507175704 | 17 | 240 | 1.6 | 8.0 | 0.00 | 0.33 | 0.00 | 63 | 1010.1 |
| 20260507175504 | 17 | 224 | 3.2 | 8.0 | 0.00 | 0.33 | 0.00 | 63 | 1010.1 |
| 20260507175403 | 17 | 221 | 3.2 | 9.7 | 0.00 | 0.33 | 0.00 | 63 | 1010.1 |
| 20260507175307 | 17 | 217 | 4.8 | 9.7 | 0.00 | 0.33 | 0.00 | 63 | 1010.1 |
| 20260507175204 | 17 | 213 | 4.8 | 9.7 | 0.00 | 0.33 | 0.00 | 63 | 1010.1 |
| 20260507175104 | 17 | 211 | 4.8 | 9.7 | 0.00 | 0.33 | 0.00 | 63 | 1010.0 |
| 20260507175004 | 17 | 210 | 6.4 | 9.7 | 0.00 | 0.33 | 0.00 | 63 | 1010.1 |
| 20260507174903 | 17 | 210 | 6.4 | 9.7 | 0.00 | 0.33 | 0.00 | 62 | 1010.1 |
| 20260507174804 | 17 | 210 | 6.4 | 9.7 | 0.00 | 0.33 | 0.00 | 62 | 1010.0 |
| 20260507174708 | 17 | 210 | 6.4 | 9.7 | 0.00 | 0.33 | 0.00 | 62 | 1010.0 |
| 20260507174604 | 17 | 209 | 6.4 | 9.7 | 0.00 | 0.33 | 0.00 | 62 | 1010.1 |
| 20260507174504 | 17 | 209 | 6.4 | 9.7 | 0.00 | 0.33 | 0.00 | 63 | 1010.1 |
| 20260507174414 | 17 | 210 | 6.4 | 9.7 | 0.00 | 0.33 | 0.00 | 62 | 1010.1 |
| 20260507174304 | 17 | 211 | 6.4 | 9.7 | 0.00 | 0.33 | 0.00 | 62 | 1010.0 |
| 20260507174205 | 17 | 211 | 6.4 | 9.7 | 0.00 | 0.33 | 0.00 | 62 | 1010.1 |
| 20260507173804 | 17 | 211 | 6.4 | 11.3 | 0.00 | 0.33 | 0.00 | 62 | 1010.0 |
| 20260507173704 | 17 | 210 | 6.4 | 11.3 | 0.00 | 0.33 | 0.00 | 61 | 1010.0 |
| 20260507173604 | 17 | 211 | 6.4 | 11.3 | 0.00 | 0.33 | 0.00 | 61 | 1010.0 |
| 20260507173505 | 17 | 210 | 6.4 | 11.3 | 0.00 | 0.33 | 0.00 | 61 | 1010.0 |
| 20260507173406 | 17 | 209 | 8.0 | 11.3 | 0.00 | 0.33 | 0.00 | 60 | 1010.0 |
| 20260507173204 | 17 | 208 | 8.0 | 11.3 | 0.00 | 0.33 | 0.00 | 60 | 1009.9 |
| 20260507173111 | 18 | 208 | 8.0 | 11.3 | 0.00 | 0.33 | 0.00 | 61 | 1009.9 |
| 20260507173005 | 18 | 208 | 6.4 | 9.7 | 0.00 | 0.33 | 0.00 | 60 | 1009.9 |
| 20260507172904 | 18 | 209 | 6.4 | 9.7 | 0.00 | 0.33 | 0.00 | 60 | 1009.9 |
| 20260507172817 | 18 | 209 | 6.4 | 9.7 | 0.00 | 0.33 | 0.00 | 59 | 1009.9 |
| 20260507172704 | 18 | 209 | 6.4 | 9.7 | 0.00 | 0.33 | 0.00 | 59 | 1009.9 |
| 20260507172504 | 18 | 209 | 6.4 | 8.0 | 0.00 | 0.33 | 0.00 | 59 | 1009.9 |
| 20260507172404 | 18 | 209 | 6.4 | 8.0 | 0.00 | 0.33 | 0.00 | 58 | 1009.8 |
| 20260507172307 | 18 | 209 | 6.4 | 8.0 | 0.00 | 0.33 | 0.00 | 58 | 1009.8 |
| 20260507172203 | 18 | 209 | 6.4 | 8.0 | 0.00 | 0.33 | 0.00 | 58 | 1009.8 |
| 20260507172104 | 18 | 208 | 6.4 | 8.0 | 0.00 | 0.33 | 0.00 | 58 | 1009.8 |
| 20260507172004 | 18 | 208 | 6.4 | 8.0 | 0.00 | 0.33 | 0.00 | 58 | 1009.8 |
| 20260507171903 | 18 | 207 | 6.4 | 8.0 | 0.00 | 0.33 | 0.00 | 56 | 1009.8 |
| 20260507171804 | 18 | 207 | 6.4 | 8.0 | 0.00 | 0.33 | 0.00 | 56 | 1009.7 |
| 20260507171704 | 18 | 207 | 6.4 | 9.7 | 0.00 | 0.33 | 0.00 | 55 | 1009.8 |
| 20260507171604 | 18 | 206 | 6.4 | 9.7 | 0.00 | 0.33 | 0.00 | 55 | 1009.7 |
| 20260507171505 | 18 | 205 | 6.4 | 9.7 | 0.00 | 0.33 | 0.00 | 55 | 1009.8 |
| 20260507171404 | 18 | 205 | 6.4 | 9.7 | 0.00 | 0.33 | 0.00 | 54 | 1009.7 |
| 20260507171304 | 18 | 205 | 6.4 | 9.7 | 0.00 | 0.33 | 0.00 | 54 | 1009.7 |
| 20260507171203 | 18 | 205 | 6.4 | 9.7 | 0.00 | 0.33 | 0.00 | 54 | 1009.7 |
| 20260507171104 | 18 | 204 | 6.4 | 9.7 | 0.00 | 0.33 | 0.00 | 55 | 1009.7 |
| 20260507171004 | 18 | 204 | 6.4 | 9.7 | 0.00 | 0.33 | 0.00 | 54 | 1009.7 |
| 20260507170903 | 18 | 204 | 6.4 | 9.7 | 0.00 | 0.33 | 0.00 | 54 | 1009.8 |
| 20260507170604 | 18 | 200 | 6.4 | 9.7 | 0.00 | 0.33 | 0.00 | 53 | 1009.7 |
| 20260507170504 | 18 | 198 | 6.4 | 9.7 | 0.00 | 0.33 | 0.00 | 53 | 1009.6 |
| 20260507170404 | 18 | 194 | 4.8 | 9.7 | 0.00 | 0.33 | 0.00 | 53 | 1009.6 |
| 20260507170309 | 18 | 196 | 4.8 | 9.7 | 0.00 | 0.33 | 0.00 | 52 | 1009.6 |
| 20260507170204 | 18 | 195 | 4.8 | 9.7 | 0.00 | 0.33 | 0.00 | 53 | 1009.6 |
| 20260507170104 | 19 | 195 | 4.8 | 9.7 | 0.00 | 0.33 | 0.00 | 52 | 1009.5 |
| 20260507170014 | 19 | 193 | 4.8 | 9.7 | 0.00 | 0.33 | 0.00 | 53 | 1009.6 |
| 20260507165905 | 19 | 193 | 4.8 | 9.7 | 0.00 | 0.33 | 0.00 | 52 | 1009.6 |
| 20260507165804 | 19 | 197 | 4.8 | 9.7 | 0.00 | 0.33 | 0.00 | 52 | 1009.6 |
| 20260507165605 | 19 | 206 | 4.8 | 9.7 | 0.00 | 0.33 | 0.00 | 51 | 1009.5 |
| 20260507165504 | 19 | 209 | 4.8 | 9.7 | 0.00 | 0.33 | 0.00 | 51 | 1009.4 |
| 20260507165306 | 19 | 214 | 4.8 | 9.7 | 0.00 | 0.33 | 0.00 | 51 | 1009.5 |
| 20260507165204 | 19 | 220 | 4.8 | 9.7 | 0.00 | 0.33 | 0.00 | 51 | 1009.6 |
| 20260507165104 | 19 | 224 | 4.8 | 9.7 | 0.00 | 0.33 | 0.00 | 51 | 1009.5 |
| 20260507165004 | 19 | 227 | 4.8 | 9.7 | 0.00 | 0.33 | 0.00 | 50 | 1009.6 |
| 20260507164904 | 19 | 232 | 4.8 | 9.7 | 0.00 | 0.33 | 0.00 | 50 | 1009.5 |
| 20260507164804 | 19 | 233 | 3.2 | 9.7 | 0.00 | 0.33 | 0.00 | 50 | 1009.5 |
| 20260507164704 | 20 | 233 | 3.2 | 9.7 | 0.00 | 0.33 | 0.00 | 50 | 1009.5 |
| 20260507164505 | 20 | 244 | 3.2 | 9.7 | 0.00 | 0.33 | 0.00 | 50 | 1009.5 |
| 20260507164407 | 20 | 243 | 3.2 | 9.7 | 0.00 | 0.33 | 0.00 | 50 | 1009.5 |
| 20260507164204 | 20 | 260 | 3.2 | 8.0 | 0.00 | 0.33 | 0.00 | 49 | 1009.4 |
| 20260507164112 | 20 | 265 | 3.2 | 8.0 | 0.00 | 0.33 | 0.00 | 49 | 1009.5 |
| 20260507164004 | 20 | 276 | 3.2 | 6.4 | 0.00 | 0.33 | 0.00 | 50 | 1009.5 |
| 20260507163904 | 20 | 279 | 3.2 | 8.0 | 0.00 | 0.33 | 0.00 | 50 | 1009.6 |
| 20260507163817 | 20 | 283 | 3.2 | 8.0 | 0.00 | 0.33 | 0.00 | 50 | 1009.6 |
| 20260507163704 | 20 | 288 | 3.2 | 8.0 | 0.00 | 0.33 | 0.00 | 50 | 1009.5 |
| 20260507163604 | 20 | 291 | 3.2 | 8.0 | 0.00 | 0.33 | 0.00 | 50 | 1009.5 |
| 20260507163504 | 20 | 300 | 3.2 | 8.0 | 0.00 | 0.33 | 0.00 | 50 | 1009.5 |
| 20260507163404 | 20 | 309 | 3.2 | 8.0 | 0.00 | 0.33 | 0.00 | 50 | 1009.5 |
| 20260507163304 | 20 | 317 | 3.2 | 8.0 | 0.00 | 0.33 | 0.00 | 50 | 1009.5 |
| 20260507163204 | 20 | 323 | 3.2 | 8.0 | 0.00 | 0.33 | 0.00 | 50 | 1009.5 |
| 20260507163103 | 20 | 329 | 3.2 | 8.0 | 0.00 | 0.33 | 0.00 | 50 | 1009.5 |
| 20260507163004 | 20 | 333 | 3.2 | 8.0 | 0.00 | 0.33 | 0.00 | 52 | 1009.5 |
| 20260507162904 | 20 | 334 | 3.2 | 6.4 | 0.00 | 0.33 | 0.00 | 52 | 1009.5 |
| 20260507162704 | 20 | 331 | 3.2 | 8.0 | 0.00 | 0.33 | 0.00 | 52 | 1009.5 |
| 20260507162604 | 20 | 329 | 3.2 | 8.0 | 0.00 | 0.33 | 0.00 | 52 | 1009.4 |
| 20260507162511 | 20 | 327 | 3.2 | 8.0 | 0.00 | 0.33 | 0.00 | 51 | 1009.3 |
| 20260507162404 | 20 | 319 | 3.2 | 8.0 | 0.00 | 0.33 | 0.00 | 51 | 1009.4 |
| 20260507162104 | 20 | 268 | 3.2 | 9.7 | 0.00 | 0.33 | 0.00 | 49 | 1009.4 |
| 20260507162004 | 20 | 253 | 4.8 | 9.7 | 0.00 | 0.33 | 0.00 | 48 | 1009.4 |
| 20260507161904 | 20 | 243 | 4.8 | 11.3 | 0.00 | 0.33 | 0.00 | 47 | 1009.3 |
| 20260507161804 | 21 | 242 | 4.8 | 11.3 | 0.00 | 0.33 | 0.00 | 47 | 1009.2 |
| 20260507161704 | 21 | 237 | 4.8 | 11.3 | 0.00 | 0.33 | 0.00 | 46 | 1009.2 |
| 20260507161504 | 21 | 212 | 4.8 | 11.3 | 0.00 | 0.33 | 0.00 | 41 | 1009.2 |
| 20260507161403 | 21 | 200 | 4.8 | 11.3 | 0.00 | 0.33 | 0.00 | 41 | 1009.2 |
| 20260507161205 | 21 | 142 | 4.8 | 11.3 | 0.00 | 0.33 | 0.00 | 43 | 1009.1 |
| 20260507161104 | 21 | 129 | 4.8 | 14.5 | 0.00 | 0.33 | 0.00 | 44 | 1009.1 |
| 20260507161004 | 21 | 106 | 4.8 | 14.5 | 0.00 | 0.33 | 0.00 | 44 | 1009.1 |
| 20260507160908 | 21 | 101 | 4.8 | 14.5 | 0.00 | 0.33 | 0.00 | 42 | 1009.1 |
| 20260507160803 | 21 | 100 | 4.8 | 14.5 | 0.00 | 0.33 | 0.00 | 42 | 1009.1 |
| 20260507160704 | 21 | 98 | 4.8 | 14.5 | 0.00 | 0.33 | 0.00 | 41 | 1009.1 |
| 20260507160504 | 21 | 91 | 4.8 | 14.5 | 0.00 | 0.33 | 0.00 | 41 | 1009.1 |
| 20260507160404 | 21 | 80 | 4.8 | 14.5 | 0.00 | 0.33 | 0.00 | 41 | 1009.2 |
| 20260507160104 | 21 | 37 | 3.2 | 8.0 | 0.00 | 0.33 | 0.00 | 42 | 1009.2 |
| 20260507160004 | 21 | 48 | 3.2 | 11.3 | 0.00 | 0.33 | 0.00 | 43 | 1009.1 |
| 20260507155803 | 21 | 47 | 4.8 | 11.3 | 0.00 | 0.33 | 0.00 | 44 | 1009.1 |
| 20260507155704 | 21 | 46 | 4.8 | 11.3 | 0.00 | 0.33 | 0.00 | 44 | 1009.1 |
| 20260507155604 | 21 | 51 | 4.8 | 12.9 | 0.00 | 0.33 | 0.00 | 44 | 1009.1 |
| 20260507155505 | 21 | 56 | 4.8 | 12.9 | 0.00 | 0.33 | 0.00 | 44 | 1009.1 |
| 20260507155404 | 21 | 64 | 4.8 | 12.9 | 0.00 | 0.33 | 0.00 | 44 | 1009.1 |
| 20260507155204 | 21 | 80 | 6.4 | 12.9 | 0.00 | 0.33 | 0.00 | 42 | 1009.2 |
| 20260507155103 | 21 | 85 | 6.4 | 12.9 | 0.00 | 0.33 | 0.00 | 43 | 1009.1 |
| 20260507155016 | 21 | 84 | 4.8 | 12.9 | 0.00 | 0.33 | 0.00 | 43 | 1009.2 |
| 20260507154804 | 21 | 70 | 4.8 | 12.9 | 0.00 | 0.33 | 0.00 | 44 | 1009.1 |
| 20260507154604 | 21 | 65 | 4.8 | 12.9 | 0.00 | 0.33 | 0.00 | 44 | 1009.1 |
| 20260507154504 | 21 | 61 | 4.8 | 12.9 | 0.00 | 0.33 | 0.00 | 44 | 1009.3 |
| 20260507154404 | 21 | 57 | 4.8 | 12.9 | 0.00 | 0.33 | 0.00 | 43 | 1009.2 |
| 20260507154304 | 21 | 26 | 3.2 | 11.3 | 0.00 | 0.33 | 0.00 | 43 | 1009.1 |
| 20260507154204 | 21 | 22 | 3.2 | 11.3 | 0.00 | 0.33 | 0.00 | 44 | 1009.1 |
| 20260507154104 | 21 | 15 | 3.2 | 9.7 | 0.00 | 0.33 | 0.00 | 45 | 1009.1 |
| 20260507154005 | 21 | 12 | 1.6 | 9.7 | 0.00 | 0.33 | 0.00 | 44 | 1009.1 |
| 20260507153904 | 21 | 352 | 1.6 | 8.0 | 0.00 | 0.33 | 0.00 | 44 | 1009.0 |
| 20260507153803 | 21 | 316 | 1.6 | 8.0 | 0.00 | 0.33 | 0.00 | 45 | 1009.1 |
| 20260507153703 | 21 | 266 | 1.6 | 8.0 | 0.00 | 0.33 | 0.00 | 45 | 1009.0 |
| 20260507153504 | 21 | 231 | 3.2 | 9.7 | 0.00 | 0.33 | 0.00 | 44 | 1009.1 |
| 20260507153404 | 21 | 235 | 3.2 | 9.7 | 0.00 | 0.33 | 0.00 | 43 | 1009.1 |
| 20260507153304 | 21 | 225 | 3.2 | 9.7 | 0.00 | 0.33 | 0.00 | 43 | 1009.1 |
| 20260507153204 | 21 | 218 | 3.2 | 9.7 | 0.00 | 0.33 | 0.00 | 43 | 1009.2 |
| 20260507153104 | 21 | 218 | 3.2 | 9.7 | 0.00 | 0.33 | 0.00 | 43 | 1009.2 |
| 20260507153005 | 21 | 221 | 3.2 | 9.7 | 0.00 | 0.33 | 0.00 | 43 | 1009.1 |
| 20260507152903 | 21 | 221 | 3.2 | 9.7 | 0.00 | 0.33 | 0.00 | 43 | 1009.1 |
| 20260507152804 | 21 | 217 | 3.2 | 9.7 | 0.00 | 0.33 | 0.00 | 42 | 1009.2 |
| 20260507152704 | 21 | 208 | 3.2 | 9.7 | 0.00 | 0.33 | 0.00 | 42 | 1009.3 |
| 20260507152604 | 21 | 207 | 4.8 | 11.3 | 0.00 | 0.33 | 0.00 | 43 | 1009.3 |
| 20260507152504 | 21 | 207 | 4.8 | 12.9 | 0.00 | 0.33 | 0.00 | 44 | 1009.2 |
| 20260507152404 | 21 | 208 | 4.8 | 14.5 | 0.00 | 0.33 | 0.00 | 43 | 1009.2 |
| 20260507152306 | 21 | 208 | 6.4 | 14.5 | 0.00 | 0.33 | 0.00 | 43 | 1009.2 |
| 20260507152203 | 21 | 208 | 6.4 | 14.5 | 0.00 | 0.33 | 0.00 | 44 | 1009.2 |
| 20260507151904 | 20 | 207 | 6.4 | 14.5 | 0.00 | 0.33 | 0.00 | 43 | 1009.2 |
| 20260507151803 | 20 | 212 | 6.4 | 14.5 | 0.00 | 0.33 | 0.00 | 43 | 1009.2 |
| 20260507151703 | 21 | 210 | 6.4 | 14.5 | 0.00 | 0.33 | 0.00 | 43 | 1009.3 |
| 20260507151504 | 21 | 212 | 6.4 | 14.5 | 0.00 | 0.33 | 0.00 | 43 | 1009.2 |
| 20260507151411 | 21 | 207 | 6.4 | 12.9 | 0.00 | 0.33 | 0.00 | 43 | 1009.3 |
| 20260507151304 | 21 | 209 | 6.4 | 12.9 | 0.00 | 0.33 | 0.00 | 44 | 1009.2 |
| 20260507151204 | 21 | 209 | 6.4 | 12.9 | 0.00 | 0.33 | 0.00 | 44 | 1009.2 |
| 20260507151104 | 21 | 208 | 8.0 | 12.9 | 0.00 | 0.33 | 0.00 | 44 | 1009.2 |
| 20260507150903 | 21 | 196 | 8.0 | 14.5 | 0.00 | 0.33 | 0.00 | 44 | 1009.2 |
| 20260507150804 | 21 | 189 | 8.0 | 14.5 | 0.00 | 0.33 | 0.00 | 44 | 1009.3 |
| 20260507150704 | 21 | 191 | 8.0 | 14.5 | 0.00 | 0.33 | 0.00 | 45 | 1009.3 |
| 20260507150504 | 20 | 192 | 8.0 | 14.5 | 0.00 | 0.33 | 0.00 | 44 | 1009.4 |
| 20260507150404 | 20 | 192 | 8.0 | 14.5 | 0.00 | 0.33 | 0.00 | 45 | 1009.3 |
| 20260507150204 | 20 | 182 | 6.4 | 14.5 | 0.00 | 0.33 | 0.00 | 45 | 1009.3 |
| 20260507150005 | 21 | 172 | 6.4 | 12.9 | 0.00 | 0.33 | 0.00 | 44 | 1009.3 |
| 20260507145903 | 21 | 168 | 4.8 | 12.9 | 0.00 | 0.33 | 0.00 | 44 | 1009.3 |
| 20260507145804 | 21 | 164 | 4.8 | 12.9 | 0.00 | 0.33 | 0.00 | 44 | 1009.3 |
| 20260507145704 | 21 | 158 | 4.8 | 12.9 | 0.00 | 0.33 | 0.00 | 44 | 1009.3 |
| 20260507145604 | 21 | 146 | 4.8 | 12.9 | 0.00 | 0.33 | 0.00 | 45 | 1009.3 |
| 20260507145504 | 21 | 131 | 4.8 | 12.9 | 0.00 | 0.33 | 0.00 | 46 | 1009.3 |
| 20260507145404 | 21 | 126 | 4.8 | 12.9 | 0.00 | 0.33 | 0.00 | 45 | 1009.4 |
| 20260507145306 | 21 | 125 | 4.8 | 12.9 | 0.00 | 0.33 | 0.00 | 45 | 1009.4 |
| 20260507145103 | 21 | 140 | 4.8 | 11.3 | 0.00 | 0.33 | 0.00 | 45 | 1009.4 |
| 20260507145004 | 21 | 143 | 4.8 | 8.0 | 0.00 | 0.33 | 0.00 | 46 | 1009.4 |
| 20260507144904 | 21 | 148 | 3.2 | 8.0 | 0.00 | 0.33 | 0.00 | 46 | 1009.3 |
| 20260507144804 | 21 | 150 | 3.2 | 8.0 | 0.00 | 0.33 | 0.00 | 45 | 1009.3 |
| 20260507144704 | 21 | 157 | 3.2 | 8.0 | 0.00 | 0.33 | 0.00 | 46 | 1009.4 |
| 20260507144603 | 21 | 171 | 3.2 | 8.0 | 0.00 | 0.33 | 0.00 | 45 | 1009.4 |
| 20260507144504 | 21 | 179 | 3.2 | 8.0 | 0.00 | 0.33 | 0.00 | 46 | 1009.3 |
| 20260507144403 | 21 | 182 | 3.2 | 8.0 | 0.00 | 0.33 | 0.00 | 46 | 1009.4 |
| 20260507144203 | 21 | 192 | 3.2 | 8.0 | 0.00 | 0.33 | 0.00 | 46 | 1009.4 |
| 20260507144103 | 21 | 175 | 3.2 | 8.0 | 0.00 | 0.33 | 0.00 | 47 | 1009.4 |
| 20260507144004 | 21 | 167 | 3.2 | 8.0 | 0.00 | 0.33 | 0.00 | 47 | 1009.4 |
| 20260507143904 | 21 | 167 | 3.2 | 8.0 | 0.00 | 0.33 | 0.00 | 47 | 1009.4 |
| 20260507143804 | 21 | 175 | 3.2 | 8.0 | 0.00 | 0.33 | 0.00 | 47 | 1009.3 |
| 20260507143704 | 20 | 165 | 3.2 | 8.0 | 0.00 | 0.33 | 0.00 | 47 | 1009.5 |
| 20260507143604 | 20 | 132 | 1.6 | 8.0 | 0.00 | 0.33 | 0.00 | 48 | 1009.4 |
| 20260507143505 | 20 | 122 | 1.6 | 8.0 | 0.00 | 0.33 | 0.00 | 46 | 1009.4 |
| 20260507143404 | 21 | 126 | 1.6 | 8.0 | 0.00 | 0.33 | 0.00 | 47 | 1009.4 |
| 20260507143303 | 21 | 155 | 1.6 | 8.0 | 0.00 | 0.33 | 0.00 | 47 | 1009.4 |
| 20260507143104 | 21 | 182 | 1.6 | 8.0 | 0.00 | 0.33 | 0.00 | 46 | 1009.4 |
| 20260507143004 | 21 | 198 | 0.0 | 3.2 | 0.00 | 0.33 | 0.00 | 46 | 1009.4 |
| 20260507142904 | 21 | 182 | 1.6 | 3.2 | 0.00 | 0.33 | 0.00 | 47 | 1009.3 |
| 20260507142803 | 21 | 170 | 1.6 | 6.4 | 0.00 | 0.33 | 0.00 | 46 | 1009.5 |
| 20260507142703 | 21 | 167 | 1.6 | 8.0 | 0.00 | 0.33 | 0.00 | 46 | 1009.3 |
| 20260507142603 | 21 | 181 | 1.6 | 11.3 | 0.00 | 0.33 | 0.00 | 46 | 1009.5 |
| 20260507142504 | 21 | 191 | 3.2 | 11.3 | 0.00 | 0.33 | 0.00 | 47 | 1009.5 |
| 20260507142306 | 21 | 188 | 3.2 | 11.3 | 0.00 | 0.33 | 0.00 | 47 | 1009.4 |
| 20260507142104 | 20 | 185 | 3.2 | 11.3 | 0.00 | 0.33 | 0.00 | 48 | 1009.5 |
| 20260507142004 | 20 | 182 | 4.8 | 11.3 | 0.00 | 0.33 | 0.00 | 47 | 1009.5 |
| 20260507141804 | 20 | 168 | 4.8 | 11.3 | 0.00 | 0.33 | 0.00 | 46 | 1009.5 |
| 20260507141703 | 20 | 156 | 3.2 | 11.3 | 0.00 | 0.33 | 0.00 | 46 | 1009.5 |
| 20260507141604 | 21 | 144 | 3.2 | 11.3 | 0.00 | 0.33 | 0.00 | 46 | 1009.5 |
| 20260507141404 | 21 | 107 | 3.2 | 6.4 | 0.00 | 0.33 | 0.00 | 46 | 1009.6 |
| 20260507141304 | 21 | 102 | 3.2 | 8.0 | 0.00 | 0.33 | 0.00 | 47 | 1009.6 |
| 20260507141203 | 20 | 94 | 3.2 | 8.0 | 0.00 | 0.33 | 0.00 | 46 | 1009.7 |
| 20260507141103 | 20 | 78 | 3.2 | 8.0 | 0.00 | 0.33 | 0.00 | 46 | 1009.5 |
| 20260507141006 | 20 | 73 | 3.2 | 8.0 | 0.00 | 0.33 | 0.00 | 45 | 1009.6 |
| 20260507140903 | 21 | 75 | 3.2 | 9.7 | 0.00 | 0.33 | 0.00 | 45 | 1009.5 |
| 20260507140804 | 21 | 75 | 3.2 | 9.7 | 0.00 | 0.33 | 0.00 | 45 | 1009.6 |
| 20260507140604 | 21 | 74 | 3.2 | 9.7 | 0.00 | 0.33 | 0.00 | 47 | 1009.6 |
| 20260507140504 | 21 | 72 | 3.2 | 9.7 | 0.00 | 0.33 | 0.00 | 47 | 1009.7 |
| 20260507140404 | 21 | 70 | 4.8 | 9.7 | 0.00 | 0.33 | 0.00 | 47 | 1009.6 |
| 20260507140304 | 21 | 68 | 3.2 | 9.7 | 0.00 | 0.33 | 0.00 | 48 | 1009.7 |
| 20260507140103 | 21 | 71 | 3.2 | 9.7 | 0.00 | 0.33 | 0.00 | 47 | 1009.7 |
| 20260507135903 | 21 | 65 | 3.2 | 8.0 | 0.00 | 0.33 | 0.00 | 48 | 1009.6 |
| 20260507135804 | 20 | 59 | 3.2 | 8.0 | 0.00 | 0.33 | 0.00 | 48 | 1009.7 |
| 20260507135704 | 20 | 51 | 3.2 | 8.0 | 0.00 | 0.33 | 0.00 | 48 | 1009.8 |
| 20260507135504 | 20 | 34 | 1.6 | 8.0 | 0.00 | 0.33 | 0.00 | 48 | 1009.8 |
| 20260507135404 | 20 | 20 | 1.6 | 8.0 | 0.00 | 0.33 | 0.00 | 49 | 1009.8 |
| 20260507135306 | 20 | 18 | 1.6 | 8.0 | 0.00 | 0.33 | 0.00 | 48 | 1009.8 |
| 20260507135204 | 20 | 26 | 3.2 | 8.0 | 0.00 | 0.33 | 0.00 | 48 | 1009.8 |
| 20260507135104 | 20 | 24 | 3.2 | 8.0 | 0.00 | 0.33 | 0.00 | 49 | 1009.8 |
| 20260507135004 | 20 | 23 | 3.2 | 8.0 | 0.00 | 0.33 | 0.00 | 48 | 1009.8 |
| 20260507134904 | 20 | 20 | 3.2 | 6.4 | 0.00 | 0.33 | 0.00 | 48 | 1009.9 |
| 20260507134804 | 20 | 20 | 3.2 | 6.4 | 0.00 | 0.33 | 0.00 | 48 | 1009.9 |
| 20260507134704 | 20 | 27 | 3.2 | 8.0 | 0.00 | 0.33 | 0.00 | 48 | 1009.9 |
| 20260507134504 | 20 | 30 | 3.2 | 9.7 | 0.00 | 0.33 | 0.00 | 49 | 1009.9 |
| 20260507134404 | 20 | 31 | 3.2 | 9.7 | 0.00 | 0.33 | 0.00 | 49 | 1009.9 |
| 20260507134304 | 20 | 42 | 3.2 | 11.3 | 0.00 | 0.33 | 0.00 | 49 | 1009.9 |
| 20260507134204 | 20 | 50 | 4.8 | 12.9 | 0.00 | 0.33 | 0.00 | 49 | 1009.9 |
| 20260507134004 | 20 | 58 | 4.8 | 12.9 | 0.00 | 0.33 | 0.00 | 49 | 1010.0 |
| 20260507133804 | 20 | 64 | 6.4 | 12.9 | 0.00 | 0.33 | 0.00 | 48 | 1010.0 |
| 20260507133604 | 20 | 71 | 4.8 | 12.9 | 0.00 | 0.33 | 0.00 | 49 | 1010.0 |
| 20260507133404 | 20 | 77 | 6.4 | 12.9 | 0.00 | 0.33 | 0.00 | 49 | 1010.0 |
| 20260507133304 | 20 | 75 | 4.8 | 12.9 | 0.00 | 0.33 | 0.00 | 49 | 1010.0 |
| 20260507133203 | 20 | 67 | 4.8 | 12.9 | 0.00 | 0.33 | 0.00 | 48 | 1010.0 |
| 20260507133103 | 20 | 60 | 3.2 | 9.7 | 0.00 | 0.33 | 0.00 | 47 | 1010.1 |
| 20260507133004 | 20 | 64 | 4.8 | 12.9 | 0.00 | 0.33 | 0.00 | 48 | 1010.1 |
| 20260507132903 | 20 | 68 | 4.8 | 14.5 | 0.00 | 0.33 | 0.00 | 49 | 1010.1 |
| 20260507132804 | 20 | 65 | 4.8 | 14.5 | 0.00 | 0.33 | 0.00 | 49 | 1010.1 |
| 20260507132704 | 20 | 70 | 4.8 | 14.5 | 0.00 | 0.33 | 0.00 | 49 | 1010.1 |
| 20260507132604 | 20 | 69 | 6.4 | 14.5 | 0.00 | 0.33 | 0.00 | 48 | 1010.1 |
| 20260507132505 | 20 | 69 | 4.8 | 14.5 | 0.00 | 0.33 | 0.00 | 50 | 1010.2 |
| 20260507132404 | 20 | 70 | 4.8 | 14.5 | 0.00 | 0.33 | 0.00 | 50 | 1010.3 |
| 20260507132307 | 20 | 71 | 4.8 | 14.5 | 0.00 | 0.33 | 0.00 | 50 | 1010.2 |
| 20260507132104 | 20 | 79 | 6.4 | 14.5 | 0.00 | 0.33 | 0.00 | 49 | 1010.3 |
| 20260507131905 | 20 | 76 | 4.8 | 12.9 | 0.00 | 0.33 | 0.00 | 48 | 1010.2 |
| 20260507131803 | 20 | 75 | 4.8 | 12.9 | 0.00 | 0.33 | 0.00 | 49 | 1010.2 |
| 20260507131704 | 20 | 79 | 4.8 | 12.9 | 0.00 | 0.33 | 0.00 | 49 | 1010.2 |
| 20260507131604 | 20 | 77 | 4.8 | 12.9 | 0.00 | 0.33 | 0.00 | 48 | 1010.2 |
| 20260507131304 | 20 | 89 | 4.8 | 11.3 | 0.00 | 0.33 | 0.00 | 50 | 1010.2 |
| 20260507131104 | 20 | 112 | 4.8 | 11.3 | 0.00 | 0.33 | 0.00 | 51 | 1010.3 |
| 20260507131005 | 20 | 128 | 4.8 | 12.9 | 0.00 | 0.33 | 0.00 | 51 | 1010.3 |
| 20260507130904 | 20 | 140 | 6.4 | 12.9 | 0.00 | 0.33 | 0.00 | 51 | 1010.4 |
| 20260507130804 | 20 | 150 | 6.4 | 12.9 | 0.00 | 0.33 | 0.00 | 51 | 1010.4 |
| 20260507130710 | 20 | 155 | 4.8 | 12.9 | 0.00 | 0.33 | 0.00 | 51 | 1010.3 |
| 20260507130504 | 19 | 164 | 6.4 | 12.9 | 0.00 | 0.33 | 0.00 | 50 | 1010.3 |
| 20260507130413 | 19 | 169 | 6.4 | 14.5 | 0.00 | 0.33 | 0.00 | 50 | 1010.4 |
| 20260507130304 | 19 | 173 | 6.4 | 14.5 | 0.00 | 0.33 | 0.00 | 51 | 1010.5 |
| 20260507130204 | 19 | 181 | 8.0 | 14.5 | 0.00 | 0.33 | 0.00 | 50 | 1010.3 |
| 20260507125904 | 20 | 189 | 6.4 | 14.5 | 0.00 | 0.33 | 0.00 | 50 | 1010.3 |
| 20260507125804 | 19 | 194 | 6.4 | 14.5 | 0.00 | 0.33 | 0.00 | 50 | 1010.4 |
| 20260507125703 | 19 | 198 | 6.4 | 14.5 | 0.00 | 0.33 | 0.00 | 50 | 1010.4 |
| 20260507125504 | 20 | 210 | 6.4 | 14.5 | 0.00 | 0.33 | 0.00 | 50 | 1010.4 |
| 20260507125204 | 20 | 202 | 4.8 | 14.5 | 0.00 | 0.33 | 0.00 | 49 | 1010.4 |
| 20260507124904 | 20 | 174 | 4.8 | 12.9 | 0.00 | 0.33 | 0.00 | 49 | 1010.4 |
| 20260507124804 | 20 | 168 | 4.8 | 12.9 | 0.00 | 0.33 | 0.00 | 49 | 1010.4 |
| 20260507124704 | 20 | 167 | 4.8 | 14.5 | 0.00 | 0.33 | 0.00 | 48 | 1010.4 |
| 20260507124505 | 20 | 167 | 6.4 | 14.5 | 0.00 | 0.33 | 0.00 | 49 | 1010.4 |
| 20260507124404 | 20 | 169 | 6.4 | 14.5 | 0.00 | 0.33 | 0.00 | 50 | 1010.4 |
| 20260507124304 | 20 | 168 | 6.4 | 14.5 | 0.00 | 0.33 | 0.00 | 50 | 1010.4 |
| 20260507124204 | 20 | 168 | 6.4 | 14.5 | 0.00 | 0.33 | 0.00 | 49 | 1010.3 |
| 20260507124104 | 20 | 173 | 4.8 | 14.5 | 0.00 | 0.33 | 0.00 | 52 | 1010.3 |
| 20260507124004 | 20 | 172 | 4.8 | 14.5 | 0.00 | 0.33 | 0.00 | 51 | 1010.4 |
| 20260507123903 | 19 | 170 | 4.8 | 14.5 | 0.00 | 0.33 | 0.00 | 51 | 1010.5 |
| 20260507123804 | 19 | 164 | 4.8 | 14.5 | 0.00 | 0.33 | 0.00 | 51 | 1010.4 |
| 20260507123704 | 20 | 152 | 4.8 | 14.5 | 0.00 | 0.33 | 0.00 | 52 | 1010.4 |
| 20260507123603 | 20 | 129 | 4.8 | 11.3 | 0.00 | 0.33 | 0.00 | 53 | 1010.4 |
| 20260507123505 | 20 | 105 | 4.8 | 12.9 | 0.00 | 0.33 | 0.00 | 53 | 1010.4 |
| 20260507123404 | 20 | 98 | 4.8 | 12.9 | 0.00 | 0.33 | 0.00 | 52 | 1010.4 |
| 20260507123304 | 20 | 96 | 4.8 | 14.5 | 0.00 | 0.33 | 0.00 | 53 | 1010.4 |
| 20260507123203 | 20 | 94 | 6.4 | 16.1 | 0.00 | 0.33 | 0.00 | 53 | 1010.4 |
| 20260507123104 | 19 | 95 | 6.4 | 16.1 | 0.00 | 0.33 | 0.00 | 53 | 1010.4 |
| 20260507123004 | 19 | 93 | 6.4 | 16.1 | 0.00 | 0.33 | 0.00 | 54 | 1010.5 |
| 20260507122904 | 19 | 90 | 6.4 | 16.1 | 0.00 | 0.33 | 0.00 | 54 | 1010.4 |
| 20260507122804 | 19 | 89 | 6.4 | 16.1 | 0.00 | 0.33 | 0.00 | 54 | 1010.4 |
| 20260507122708 | 19 | 90 | 6.4 | 16.1 | 0.00 | 0.33 | 0.00 | 55 | 1010.4 |
| 20260507122604 | 19 | 90 | 6.4 | 16.1 | 0.00 | 0.33 | 0.00 | 55 | 1010.3 |
| 20260507122504 | 19 | 90 | 6.4 | 16.1 | 0.00 | 0.33 | 0.00 | 55 | 1010.3 |
| 20260507122203 | 19 | 87 | 6.4 | 16.1 | 0.00 | 0.33 | 0.00 | 55 | 1010.2 |
| 20260507122116 | 19 | 81 | 6.4 | 16.1 | 0.00 | 0.33 | 0.00 | 55 | 1010.4 |
| 20260507121904 | 19 | 75 | 6.4 | 16.1 | 0.00 | 0.33 | 0.00 | 55 | 1010.4 |
| 20260507121603 | 19 | 81 | 8.0 | 17.7 | 0.00 | 0.33 | 0.00 | 55 | 1010.5 |
| 20260507121505 | 18 | 80 | 8.0 | 17.7 | 0.00 | 0.33 | 0.00 | 57 | 1010.5 |
| 20260507121404 | 18 | 81 | 9.7 | 17.7 | 0.00 | 0.33 | 0.00 | 57 | 1010.5 |
| 20260507121303 | 18 | 83 | 9.7 | 17.7 | 0.00 | 0.33 | 0.00 | 58 | 1010.6 |
| 20260507121103 | 18 | 86 | 11.3 | 17.7 | 0.00 | 0.33 | 0.00 | 57 | 1010.6 |
| 20260507121005 | 18 | 87 | 11.3 | 17.7 | 0.00 | 0.33 | 0.00 | 56 | 1010.6 |
| 20260507120904 | 18 | 88 | 9.7 | 17.7 | 0.00 | 0.33 | 0.00 | 56 | 1010.7 |
| 20260507120804 | 18 | 87 | 9.7 | 17.7 | 0.00 | 0.33 | 0.00 | 56 | 1010.8 |
| 20260507120704 | 18 | 87 | 8.0 | 16.1 | 0.00 | 0.33 | 0.00 | 57 | 1010.7 |
| 20260507120604 | 18 | 87 | 8.0 | 16.1 | 0.00 | 0.33 | 0.00 | 57 | 1010.7 |
| 20260507120504 | 18 | 88 | 8.0 | 16.1 | 0.00 | 0.33 | 0.00 | 56 | 1010.7 |
| 20260507120404 | 18 | 90 | 6.4 | 16.1 | 0.00 | 0.33 | 0.00 | 56 | 1010.8 |
| 20260507120304 | 18 | 88 | 6.4 | 16.1 | 0.00 | 0.33 | 0.00 | 56 | 1010.7 |
| 20260507120104 | 18 | 81 | 6.4 | 14.5 | 0.00 | 0.33 | 0.00 | 56 | 1010.6 |
| 20260507120004 | 18 | 81 | 6.4 | 14.5 | 0.00 | 0.33 | 0.00 | 56 | 1010.7 |
| 20260507115904 | 18 | 81 | 6.4 | 16.1 | 0.00 | 0.33 | 0.00 | 58 | 1010.7 |
| 20260507115803 | 18 | 79 | 6.4 | 16.1 | 0.00 | 0.33 | 0.00 | 57 | 1010.8 |
| 20260507115704 | 18 | 79 | 6.4 | 16.1 | 0.00 | 0.33 | 0.00 | 57 | 1010.7 |
| 20260507115603 | 18 | 79 | 6.4 | 16.1 | 0.00 | 0.33 | 0.00 | 57 | 1010.8 |
| 20260507115506 | 18 | 79 | 6.4 | 16.1 | 0.00 | 0.33 | 0.00 | 58 | 1010.8 |
| 20260507115306 | 18 | 82 | 8.0 | 16.1 | 0.00 | 0.33 | 0.00 | 57 | 1010.8 |
| 20260507115205 | 18 | 85 | 8.0 | 16.1 | 0.00 | 0.33 | 0.00 | 56 | 1010.9 |
| 20260507115103 | 18 | 87 | 6.4 | 16.1 | 0.00 | 0.33 | 0.00 | 56 | 1010.7 |
| 20260507115004 | 18 | 90 | 6.4 | 16.1 | 0.00 | 0.33 | 0.00 | 56 | 1010.7 |
| 20260507114904 | 18 | 97 | 4.8 | 12.9 | 0.00 | 0.33 | 0.00 | 56 | 1010.7 |
| 20260507114804 | 18 | 98 | 4.8 | 12.9 | 0.00 | 0.33 | 0.00 | 56 | 1010.8 |
| 20260507114704 | 18 | 99 | 4.8 | 12.9 | 0.00 | 0.33 | 0.00 | 56 | 1010.8 |
| 20260507114604 | 18 | 102 | 4.8 | 12.9 | 0.00 | 0.33 | 0.00 | 55 | 1010.8 |
| 20260507114504 | 18 | 109 | 4.8 | 12.9 | 0.00 | 0.33 | 0.00 | 54 | 1010.8 |
| 20260507114403 | 19 | 110 | 4.8 | 11.3 | 0.00 | 0.33 | 0.00 | 54 | 1010.8 |
| 20260507114304 | 19 | 114 | 4.8 | 9.7 | 0.00 | 0.33 | 0.00 | 55 | 1010.7 |
| 20260507114203 | 19 | 114 | 4.8 | 9.7 | 0.00 | 0.33 | 0.00 | 55 | 1010.7 |
| 20260507114104 | 19 | 111 | 4.8 | 12.9 | 0.00 | 0.33 | 0.00 | 55 | 1010.8 |
| 20260507114004 | 19 | 108 | 4.8 | 12.9 | 0.00 | 0.33 | 0.00 | 55 | 1010.7 |
| 20260507113904 | 19 | 102 | 4.8 | 12.9 | 0.00 | 0.33 | 0.00 | 55 | 1010.8 |
| 20260507113704 | 19 | 103 | 4.8 | 12.9 | 0.00 | 0.33 | 0.00 | 55 | 1010.9 |
| 20260507113603 | 19 | 99 | 4.8 | 12.9 | 0.00 | 0.33 | 0.00 | 56 | 1010.8 |
| 20260507113504 | 19 | 92 | 4.8 | 12.9 | 0.00 | 0.33 | 0.00 | 56 | 1010.9 |
| 20260507113404 | 18 | 89 | 4.8 | 12.9 | 0.00 | 0.33 | 0.00 | 57 | 1011.0 |
| 20260507113304 | 18 | 80 | 4.8 | 12.9 | 0.00 | 0.33 | 0.00 | 56 | 1010.9 |
| 20260507113204 | 18 | 72 | 6.4 | 12.9 | 0.00 | 0.33 | 0.00 | 56 | 1010.8 |
| 20260507113104 | 18 | 61 | 6.4 | 12.9 | 0.00 | 0.33 | 0.00 | 57 | 1011.0 |
| 20260507113004 | 18 | 57 | 6.4 | 12.9 | 0.00 | 0.33 | 0.00 | 56 | 1011.0 |
| 20260507112903 | 18 | 53 | 6.4 | 12.9 | 0.00 | 0.33 | 0.00 | 56 | 1011.1 |
| 20260507112804 | 18 | 51 | 6.4 | 14.5 | 0.00 | 0.33 | 0.00 | 57 | 1011.1 |
| 20260507112703 | 18 | 52 | 6.4 | 14.5 | 0.00 | 0.33 | 0.00 | 57 | 1011.0 |
| 20260507112505 | 17 | 56 | 6.4 | 14.5 | 0.00 | 0.33 | 0.00 | 57 | 1011.0 |
| 20260507112311 | 18 | 64 | 8.0 | 14.5 | 0.00 | 0.33 | 0.00 | 56 | 1011.0 |
| 20260507112204 | 18 | 69 | 8.0 | 16.1 | 0.00 | 0.33 | 0.00 | 58 | 1011.1 |
| 20260507112104 | 17 | 72 | 9.7 | 16.1 | 0.00 | 0.33 | 0.00 | 59 | 1011.2 |
| 20260507112017 | 17 | 74 | 9.7 | 16.1 | 0.00 | 0.33 | 0.00 | 59 | 1011.1 |
| 20260507111905 | 17 | 77 | 9.7 | 16.1 | 0.00 | 0.33 | 0.00 | 58 | 1011.2 |
| 20260507111603 | 17 | 78 | 9.7 | 17.7 | 0.00 | 0.33 | 0.00 | 57 | 1011.2 |
| 20260507111504 | 17 | 78 | 9.7 | 17.7 | 0.00 | 0.33 | 0.00 | 56 | 1011.2 |
| 20260507111304 | 17 | 82 | 9.7 | 19.3 | 0.00 | 0.33 | 0.00 | 57 | 1011.2 |
| 20260507111204 | 17 | 82 | 9.7 | 19.3 | 0.00 | 0.33 | 0.00 | 58 | 1011.2 |
| 20260507111104 | 17 | 83 | 9.7 | 19.3 | 0.00 | 0.33 | 0.00 | 57 | 1011.2 |
| 20260507111004 | 17 | 84 | 9.7 | 19.3 | 0.00 | 0.33 | 0.00 | 58 | 1011.2 |
| 20260507110804 | 17 | 87 | 11.3 | 19.3 | 0.00 | 0.33 | 0.00 | 59 | 1011.3 |
| 20260507110704 | 17 | 86 | 11.3 | 19.3 | 0.00 | 0.33 | 0.00 | 59 | 1011.3 |
| 20260507110504 | 17 | 90 | 11.3 | 19.3 | 0.00 | 0.33 | 0.00 | 58 | 1011.2 |
| 20260507110303 | 17 | 91 | 9.7 | 19.3 | 0.00 | 0.33 | 0.00 | 57 | 1011.3 |
| 20260507110203 | 17 | 91 | 8.0 | 17.7 | 0.00 | 0.33 | 0.00 | 57 | 1011.3 |
| 20260507110107 | 17 | 92 | 8.0 | 16.1 | 0.00 | 0.33 | 0.00 | 57 | 1011.3 |
| 20260507110005 | 17 | 90 | 8.0 | 16.1 | 0.00 | 0.33 | 0.00 | 57 | 1011.4 |
| 20260507105904 | 17 | 92 | 8.0 | 17.7 | 0.00 | 0.33 | 0.00 | 58 | 1011.4 |
| 20260507105813 | 17 | 90 | 8.0 | 17.7 | 0.00 | 0.33 | 0.00 | 58 | 1011.4 |
| 20260507105704 | 17 | 93 | 8.0 | 17.7 | 0.00 | 0.33 | 0.00 | 58 | 1011.5 |
| 20260507105609 | 17 | 90 | 9.7 | 19.3 | 0.00 | 0.33 | 0.00 | 59 | 1011.4 |
| 20260507105523 | 17 | 88 | 9.7 | 19.3 | 0.00 | 0.33 | 0.00 | 59 | 1011.4 |
| 20260507105404 | 17 | 89 | 11.3 | 19.3 | 0.00 | 0.33 | 0.00 | 59 | 1011.5 |
| 20260507105306 | 17 | 90 | 11.3 | 19.3 | 0.00 | 0.33 | 0.00 | 58 | 1011.5 |
| 20260507105103 | 17 | 92 | 9.7 | 19.3 | 0.00 | 0.33 | 0.00 | 59 | 1011.5 |
| 20260507105004 | 17 | 90 | 11.3 | 19.3 | 0.00 | 0.33 | 0.00 | 60 | 1011.5 |
| 20260507104904 | 17 | 86 | 9.7 | 19.3 | 0.00 | 0.33 | 0.00 | 60 | 1011.4 |
| 20260507104804 | 17 | 85 | 11.3 | 19.3 | 0.00 | 0.33 | 0.00 | 60 | 1011.5 |
| 20260507104703 | 17 | 82 | 11.3 | 19.3 | 0.00 | 0.33 | 0.00 | 59 | 1011.5 |
| 20260507104604 | 17 | 83 | 9.7 | 17.7 | 0.00 | 0.33 | 0.00 | 59 | 1011.5 |
| 20260507104504 | 17 | 86 | 9.7 | 17.7 | 0.00 | 0.33 | 0.00 | 59 | 1011.5 |
| 20260507104403 | 17 | 85 | 9.7 | 17.7 | 0.00 | 0.33 | 0.00 | 59 | 1011.5 |
| 20260507104303 | 17 | 82 | 9.7 | 17.7 | 0.00 | 0.33 | 0.00 | 60 | 1011.5 |
| 20260507104205 | 17 | 81 | 9.7 | 17.7 | 0.00 | 0.33 | 0.00 | 59 | 1011.4 |
| 20260507104104 | 17 | 82 | 9.7 | 17.7 | 0.00 | 0.33 | 0.00 | 58 | 1011.4 |
| 20260507104004 | 17 | 84 | 9.7 | 17.7 | 0.00 | 0.33 | 0.00 | 59 | 1011.5 |
| 20260507103911 | 17 | 86 | 9.7 | 17.7 | 0.00 | 0.33 | 0.00 | 59 | 1011.4 |
| 20260507103804 | 17 | 89 | 9.7 | 17.7 | 0.00 | 0.33 | 0.00 | 59 | 1011.5 |
| 20260507103616 | 17 | 90 | 9.7 | 17.7 | 0.00 | 0.33 | 0.00 | 58 | 1011.5 |
| 20260507103504 | 17 | 87 | 9.7 | 17.7 | 0.00 | 0.33 | 0.00 | 58 | 1011.5 |
| 20260507103404 | 17 | 87 | 8.0 | 17.7 | 0.00 | 0.33 | 0.00 | 58 | 1011.6 |
| 20260507103303 | 17 | 86 | 8.0 | 17.7 | 0.00 | 0.33 | 0.00 | 57 | 1011.5 |
| 20260507103203 | 17 | 83 | 8.0 | 17.7 | 0.00 | 0.33 | 0.00 | 57 | 1011.5 |
| 20260507103103 | 17 | 80 | 8.0 | 17.7 | 0.00 | 0.33 | 0.00 | 58 | 1011.4 |
| 20260507102904 | 17 | 83 | 8.0 | 17.7 | 0.00 | 0.33 | 0.00 | 57 | 1011.6 |
| 20260507102803 | 17 | 81 | 8.0 | 16.1 | 0.00 | 0.33 | 0.00 | 58 | 1011.5 |
| 20260507102704 | 17 | 78 | 8.0 | 16.1 | 0.00 | 0.33 | 0.00 | 58 | 1011.5 |
| 20260507102603 | 17 | 76 | 8.0 | 16.1 | 0.00 | 0.33 | 0.00 | 59 | 1011.6 |
| 20260507102403 | 17 | 78 | 9.7 | 16.1 | 0.00 | 0.33 | 0.00 | 60 | 1011.7 |
| 20260507102306 | 17 | 81 | 9.7 | 16.1 | 0.00 | 0.33 | 0.00 | 60 | 1011.7 |
| 20260507102204 | 17 | 83 | 9.7 | 16.1 | 0.00 | 0.33 | 0.00 | 59 | 1011.7 |
| 20260507102104 | 17 | 84 | 9.7 | 17.7 | 0.00 | 0.33 | 0.00 | 59 | 1011.7 |
| 20260507102009 | 17 | 84 | 9.7 | 17.7 | 0.00 | 0.33 | 0.00 | 59 | 1011.7 |
| 20260507101905 | 17 | 84 | 9.7 | 17.7 | 0.00 | 0.33 | 0.00 | 58 | 1011.7 |
| 20260507101715 | 17 | 85 | 9.7 | 17.7 | 0.00 | 0.33 | 0.00 | 58 | 1011.6 |
| 20260507101604 | 17 | 86 | 9.7 | 17.7 | 0.00 | 0.33 | 0.00 | 58 | 1011.6 |
| 20260507101506 | 17 | 88 | 9.7 | 17.7 | 0.00 | 0.33 | 0.00 | 58 | 1011.6 |
| 20260507101418 | 17 | 90 | 9.7 | 17.7 | 0.00 | 0.33 | 0.00 | 59 | 1011.6 |
| 20260507101203 | 17 | 90 | 9.7 | 17.7 | 0.00 | 0.33 | 0.00 | 58 | 1011.6 |
| 20260507101103 | 17 | 90 | 9.7 | 16.1 | 0.00 | 0.33 | 0.00 | 58 | 1011.7 |
| 20260507100904 | 17 | 92 | 9.7 | 16.1 | 0.00 | 0.33 | 0.00 | 58 | 1011.6 |
| 20260507100803 | 17 | 94 | 8.0 | 16.1 | 0.00 | 0.33 | 0.00 | 57 | 1011.6 |
| 20260507100603 | 17 | 95 | 8.0 | 14.5 | 0.00 | 0.33 | 0.00 | 58 | 1011.7 |
| 20260507100504 | 17 | 94 | 8.0 | 14.5 | 0.00 | 0.33 | 0.00 | 58 | 1011.7 |
| 20260507100404 | 17 | 92 | 8.0 | 14.5 | 0.00 | 0.33 | 0.00 | 59 | 1011.6 |
| 20260507100304 | 17 | 89 | 8.0 | 14.5 | 0.00 | 0.33 | 0.00 | 59 | 1011.6 |
| 20260507100205 | 17 | 88 | 6.4 | 12.9 | 0.00 | 0.33 | 0.00 | 58 | 1011.6 |
| 20260507100104 | 17 | 86 | 6.4 | 12.9 | 0.00 | 0.33 | 0.00 | 59 | 1011.7 |
| 20260507100005 | 17 | 86 | 6.4 | 14.5 | 0.00 | 0.33 | 0.00 | 59 | 1011.7 |
| 20260507095905 | 17 | 84 | 8.0 | 14.5 | 0.00 | 0.33 | 0.00 | 59 | 1011.8 |
| 20260507095803 | 17 | 84 | 8.0 | 14.5 | 0.00 | 0.33 | 0.00 | 59 | 1011.7 |
| 20260507095703 | 17 | 85 | 8.0 | 14.5 | 0.00 | 0.33 | 0.00 | 59 | 1011.7 |
| 20260507095604 | 17 | 84 | 8.0 | 14.5 | 0.00 | 0.33 | 0.00 | 59 | 1011.8 |
| 20260507095504 | 16 | 82 | 8.0 | 14.5 | 0.00 | 0.33 | 0.00 | 60 | 1011.8 |
| 20260507095404 | 16 | 81 | 9.7 | 14.5 | 0.00 | 0.33 | 0.00 | 61 | 1011.8 |
| 20260507095306 | 16 | 81 | 9.7 | 14.5 | 0.00 | 0.33 | 0.00 | 60 | 1011.7 |
| 20260507095204 | 16 | 83 | 9.7 | 14.5 | 0.00 | 0.33 | 0.00 | 59 | 1011.8 |
| 20260507095004 | 16 | 83 | 11.3 | 14.5 | 0.00 | 0.33 | 0.00 | 59 | 1011.9 |
| 20260507094903 | 16 | 82 | 9.7 | 14.5 | 0.00 | 0.33 | 0.00 | 60 | 1011.9 |
| 20260507094703 | 16 | 80 | 9.7 | 14.5 | 0.00 | 0.33 | 0.00 | 58 | 1011.8 |
| 20260507094604 | 16 | 80 | 9.7 | 14.5 | 0.00 | 0.33 | 0.00 | 58 | 1011.9 |
| 20260507094404 | 16 | 81 | 9.7 | 14.5 | 0.00 | 0.33 | 0.00 | 60 | 1011.9 |
| 20260507094309 | 16 | 81 | 8.0 | 14.5 | 0.00 | 0.33 | 0.00 | 59 | 1011.8 |
| 20260507094204 | 16 | 80 | 8.0 | 14.5 | 0.00 | 0.33 | 0.00 | 58 | 1011.9 |
| 20260507094104 | 16 | 76 | 8.0 | 14.5 | 0.00 | 0.33 | 0.00 | 59 | 1011.8 |
| 20260507094015 | 16 | 76 | 6.4 | 14.5 | 0.00 | 0.33 | 0.00 | 61 | 1011.9 |
| 20260507093903 | 16 | 78 | 6.4 | 14.5 | 0.00 | 0.33 | 0.00 | 60 | 1011.9 |
| 20260507093803 | 16 | 79 | 6.4 | 14.5 | 0.00 | 0.33 | 0.00 | 61 | 1011.9 |
| 20260507093703 | 16 | 75 | 6.4 | 14.5 | 0.00 | 0.33 | 0.00 | 60 | 1011.8 |
| 20260507093604 | 16 | 76 | 6.4 | 14.5 | 0.00 | 0.33 | 0.00 | 61 | 1011.9 |
| 20260507093504 | 16 | 76 | 4.8 | 12.9 | 0.00 | 0.33 | 0.00 | 61 | 1011.8 |
| 20260507093404 | 16 | 80 | 4.8 | 12.9 | 0.00 | 0.33 | 0.00 | 61 | 1011.9 |
| 20260507093303 | 16 | 84 | 6.4 | 12.9 | 0.00 | 0.33 | 0.00 | 61 | 1011.8 |
| 20260507093204 | 16 | 86 | 6.4 | 12.9 | 0.00 | 0.33 | 0.00 | 61 | 1011.9 |
| 20260507093104 | 16 | 90 | 6.4 | 12.9 | 0.00 | 0.33 | 0.00 | 61 | 1011.9 |
| 20260507093004 | 16 | 95 | 6.4 | 12.9 | 0.00 | 0.33 | 0.00 | 60 | 1011.8 |
| 20260507092903 | 16 | 96 | 6.4 | 12.9 | 0.00 | 0.33 | 0.00 | 60 | 1011.8 |
| 20260507092804 | 16 | 99 | 6.4 | 12.9 | 0.00 | 0.33 | 0.00 | 60 | 1011.8 |
| 20260507092704 | 16 | 100 | 6.4 | 12.9 | 0.00 | 0.33 | 0.00 | 60 | 1011.7 |
| 20260507092604 | 16 | 98 | 8.0 | 12.9 | 0.00 | 0.33 | 0.00 | 59 | 1011.8 |
| 20260507092504 | 16 | 102 | 6.4 | 12.9 | 0.00 | 0.33 | 0.00 | 59 | 1011.7 |
| 20260507092409 | 16 | 102 | 6.4 | 12.9 | 0.00 | 0.33 | 0.00 | 59 | 1011.7 |
| 20260507092004 | 16 | 94 | 6.4 | 14.5 | 0.00 | 0.33 | 0.00 | 59 | 1011.9 |
| 20260507091804 | 16 | 87 | 6.4 | 14.5 | 0.00 | 0.33 | 0.00 | 61 | 1011.8 |
| 20260507091703 | 16 | 91 | 6.4 | 14.5 | 0.00 | 0.33 | 0.00 | 61 | 1011.8 |
| 20260507091603 | 16 | 91 | 4.8 | 14.5 | 0.00 | 0.33 | 0.00 | 60 | 1011.7 |
| 20260507091504 | 16 | 90 | 4.8 | 14.5 | 0.00 | 0.33 | 0.00 | 62 | 1011.8 |
| 20260507091404 | 16 | 92 | 4.8 | 14.5 | 0.00 | 0.33 | 0.00 | 62 | 1011.7 |
| 20260507091304 | 16 | 96 | 4.8 | 14.5 | 0.00 | 0.33 | 0.00 | 61 | 1011.7 |
| 20260507091203 | 16 | 100 | 3.2 | 9.7 | 0.00 | 0.33 | 0.00 | 62 | 1011.7 |
| 20260507091104 | 16 | 105 | 3.2 | 9.7 | 0.00 | 0.33 | 0.00 | 62 | 1011.7 |
| 20260507090904 | 16 | 113 | 3.2 | 9.7 | 0.00 | 0.33 | 0.00 | 62 | 1011.7 |
| 20260507090803 | 16 | 110 | 3.2 | 9.7 | 0.00 | 0.33 | 0.00 | 61 | 1011.8 |
| 20260507090703 | 16 | 104 | 3.2 | 8.0 | 0.00 | 0.33 | 0.00 | 61 | 1011.7 |
| 20260507090604 | 16 | 111 | 3.2 | 8.0 | 0.00 | 0.33 | 0.00 | 61 | 1011.7 |
| 20260507090404 | 16 | 97 | 3.2 | 11.3 | 0.00 | 0.33 | 0.00 | 64 | 1011.8 |
| 20260507090304 | 16 | 90 | 3.2 | 11.3 | 0.00 | 0.33 | 0.00 | 65 | 1011.7 |
| 20260507090204 | 16 | 90 | 3.2 | 11.3 | 0.00 | 0.33 | 0.00 | 66 | 1011.8 |
| 20260507090103 | 16 | 90 | 3.2 | 11.3 | 0.00 | 0.33 | 0.00 | 66 | 1011.7 |
| 20260507090005 | 16 | 87 | 3.2 | 11.3 | 0.00 | 0.33 | 0.00 | 65 | 1011.8 |
| 20260507085903 | 16 | 88 | 3.2 | 11.3 | 0.00 | 0.33 | 0.00 | 66 | 1011.8 |
| 20260507085803 | 16 | 88 | 3.2 | 11.3 | 0.00 | 0.33 | 0.00 | 65 | 1011.8 |
| 20260507085604 | 16 | 77 | 3.2 | 11.3 | 0.00 | 0.33 | 0.00 | 66 | 1011.8 |
| 20260507085505 | 16 | 68 | 1.6 | 11.3 | 0.00 | 0.33 | 0.00 | 67 | 1011.9 |
| 20260507085404 | 16 | 40 | 1.6 | 6.4 | 0.00 | 0.33 | 0.00 | 68 | 1011.8 |
| 20260507085308 | 16 | 34 | 1.6 | 4.8 | 0.00 | 0.33 | 0.00 | 68 | 1011.8 |
| 20260507085104 | 16 | 28 | 1.6 | 4.8 | 0.00 | 0.33 | 0.00 | 66 | 1011.8 |
| 20260507085015 | 16 | 14 | 1.6 | 4.8 | 0.00 | 0.33 | 0.00 | 65 | 1011.8 |
| 20260507084803 | 16 | 335 | 1.6 | 6.4 | 0.00 | 0.33 | 0.00 | 67 | 1011.8 |
| 20260507084703 | 16 | 331 | 1.6 | 6.4 | 0.00 | 0.33 | 0.00 | 67 | 1011.8 |
| 20260507084504 | 15 | 326 | 1.6 | 6.4 | 0.00 | 0.33 | 0.00 | 68 | 1011.9 |
| 20260507084404 | 15 | 327 | 1.6 | 6.4 | 0.00 | 0.33 | 0.00 | 69 | 1011.8 |
| 20260507084303 | 15 | 328 | 3.2 | 6.4 | 0.00 | 0.33 | 0.00 | 70 | 1011.8 |
| 20260507084104 | 15 | 332 | 3.2 | 6.4 | 0.00 | 0.33 | 0.00 | 69 | 1011.9 |
| 20260507084005 | 15 | 339 | 3.2 | 6.4 | 0.00 | 0.33 | 0.00 | 69 | 1012.0 |
| 20260507083904 | 15 | 345 | 3.2 | 6.4 | 0.00 | 0.33 | 0.00 | 69 | 1011.8 |
| 20260507083803 | 15 | 350 | 3.2 | 6.4 | 0.00 | 0.33 | 0.00 | 68 | 1011.9 |
| 20260507083703 | 15 | 353 | 3.2 | 8.0 | 0.00 | 0.33 | 0.00 | 69 | 1011.8 |
| 20260507083605 | 15 | 3 | 3.2 | 8.0 | 0.00 | 0.33 | 0.00 | 69 | 1011.8 |
| 20260507083403 | 15 | 4 | 3.2 | 8.0 | 0.00 | 0.33 | 0.00 | 68 | 1011.8 |
| 20260507083304 | 15 | 3 | 3.2 | 8.0 | 0.00 | 0.33 | 0.00 | 68 | 1011.8 |
| 20260507083203 | 15 | 4 | 3.2 | 8.0 | 0.00 | 0.33 | 0.00 | 68 | 1011.9 |
| 20260507083105 | 15 | 2 | 4.8 | 8.0 | 0.00 | 0.33 | 0.00 | 68 | 1011.8 |
| 20260507083004 | 15 | 358 | 3.2 | 8.0 | 0.00 | 0.33 | 0.00 | 68 | 1011.9 |
| 20260507082905 | 15 | 359 | 4.8 | 8.0 | 0.00 | 0.33 | 0.00 | 69 | 1011.8 |
| 20260507082810 | 15 | 4 | 4.8 | 8.0 | 0.00 | 0.33 | 0.00 | 69 | 1011.9 |
| 20260507082704 | 15 | 9 | 3.2 | 8.0 | 0.00 | 0.33 | 0.00 | 68 | 1011.9 |
| 20260507082516 | 15 | 13 | 3.2 | 8.0 | 0.00 | 0.33 | 0.00 | 69 | 1011.9 |
| 20260507082404 | 15 | 13 | 3.2 | 8.0 | 0.00 | 0.33 | 0.00 | 69 | 1011.9 |
| 20260507082306 | 15 | 13 | 3.2 | 8.0 | 0.00 | 0.33 | 0.00 | 69 | 1011.9 |
| 20260507082103 | 14 | 13 | 3.2 | 9.7 | 0.00 | 0.33 | 0.00 | 69 | 1011.9 |
| 20260507082004 | 14 | 9 | 4.8 | 9.7 | 0.00 | 0.33 | 0.00 | 69 | 1011.9 |
| 20260507081904 | 14 | 3 | 4.8 | 9.7 | 0.00 | 0.33 | 0.00 | 69 | 1011.9 |
| 20260507081803 | 14 | 357 | 4.8 | 11.3 | 0.00 | 0.33 | 0.00 | 69 | 1011.9 |
| 20260507081605 | 15 | 349 | 6.4 | 11.3 | 0.00 | 0.33 | 0.00 | 69 | 1011.9 |
| 20260507081504 | 14 | 347 | 6.4 | 11.3 | 0.00 | 0.33 | 0.00 | 69 | 1011.9 |
| 20260507081404 | 14 | 346 | 6.4 | 11.3 | 0.00 | 0.33 | 0.00 | 68 | 1012.0 |
| 20260507081304 | 14 | 346 | 6.4 | 11.3 | 0.00 | 0.33 | 0.00 | 68 | 1012.0 |
| 20260507081203 | 14 | 347 | 6.4 | 11.3 | 0.00 | 0.33 | 0.00 | 68 | 1012.0 |
| 20260507081104 | 14 | 347 | 6.4 | 11.3 | 0.00 | 0.33 | 0.00 | 68 | 1012.0 |
| 20260507080904 | 14 | 346 | 6.4 | 12.9 | 0.00 | 0.33 | 0.00 | 69 | 1011.9 |
| 20260507080804 | 14 | 348 | 6.4 | 12.9 | 0.00 | 0.33 | 0.00 | 70 | 1011.9 |
| 20260507080704 | 14 | 348 | 4.8 | 12.9 | 0.00 | 0.33 | 0.00 | 70 | 1011.9 |
| 20260507080603 | 14 | 349 | 4.8 | 12.9 | 0.00 | 0.33 | 0.00 | 70 | 1011.9 |
| 20260507080404 | 14 | 349 | 6.4 | 12.9 | 0.00 | 0.33 | 0.00 | 69 | 1011.9 |
| 20260507080304 | 14 | 349 | 6.4 | 12.9 | 0.00 | 0.33 | 0.00 | 70 | 1012.0 |
| 20260507080104 | 14 | 346 | 6.4 | 12.9 | 0.00 | 0.33 | 0.00 | 70 | 1012.0 |
| 20260507080004 | 13 | 349 | 6.4 | 12.9 | 0.00 | 0.33 | 0.00 | 70 | 1012.0 |
| 20260507075904 | 13 | 352 | 6.4 | 12.9 | 0.00 | 0.33 | 0.00 | 69 | 1012.0 |
| 20260507075705 | 13 | 352 | 8.0 | 12.9 | 0.00 | 0.33 | 0.00 | 70 | 1011.9 |
| 20260507075603 | 13 | 354 | 8.0 | 12.9 | 0.00 | 0.33 | 0.00 | 71 | 1012.0 |
| 20260507075504 | 13 | 356 | 8.0 | 12.9 | 0.00 | 0.33 | 0.00 | 71 | 1012.1 |
| 20260507075404 | 13 | 1 | 8.0 | 12.9 | 0.00 | 0.33 | 0.00 | 71 | 1012.0 |
| 20260507075306 | 13 | 2 | 8.0 | 12.9 | 0.00 | 0.33 | 0.00 | 72 | 1012.1 |
| 20260507075204 | 13 | 4 | 8.0 | 12.9 | 0.00 | 0.33 | 0.00 | 72 | 1012.1 |
| 20260507075104 | 13 | 5 | 8.0 | 12.9 | 0.00 | 0.33 | 0.00 | 73 | 1012.1 |
| 20260507074809 | 13 | 8 | 6.4 | 11.3 | 0.00 | 0.33 | 0.00 | 73 | 1012.0 |
| 20260507074704 | 13 | 10 | 6.4 | 11.3 | 0.00 | 0.33 | 0.00 | 74 | 1012.0 |
| 20260507074604 | 13 | 9 | 6.4 | 11.3 | 0.00 | 0.33 | 0.00 | 73 | 1012.0 |
| 20260507074515 | 13 | 10 | 6.4 | 11.3 | 0.00 | 0.33 | 0.00 | 73 | 1012.1 |
| 20260507074403 | 13 | 8 | 6.4 | 11.3 | 0.00 | 0.33 | 0.00 | 73 | 1012.0 |
| 20260507074304 | 13 | 8 | 6.4 | 11.3 | 0.00 | 0.33 | 0.00 | 73 | 1012.1 |
| 20260507074204 | 13 | 11 | 4.8 | 11.3 | 0.00 | 0.33 | 0.00 | 74 | 1012.1 |
| 20260507074103 | 13 | 16 | 4.8 | 9.7 | 0.00 | 0.33 | 0.00 | 74 | 1012.0 |
| 20260507074004 | 13 | 18 | 4.8 | 9.7 | 0.00 | 0.33 | 0.00 | 74 | 1012.1 |
| 20260507073904 | 13 | 18 | 4.8 | 9.7 | 0.00 | 0.33 | 0.00 | 75 | 1012.1 |
| 20260507073604 | 13 | 27 | 4.8 | 9.7 | 0.00 | 0.33 | 0.00 | 75 | 1012.1 |
| 20260507073503 | 13 | 24 | 4.8 | 8.0 | 0.00 | 0.33 | 0.00 | 76 | 1012.1 |
| 20260507073404 | 13 | 25 | 4.8 | 8.0 | 0.00 | 0.33 | 0.00 | 77 | 1012.2 |
| 20260507073209 | 12 | 21 | 4.8 | 8.0 | 0.00 | 0.33 | 0.00 | 77 | 1012.2 |
| 20260507073104 | 12 | 16 | 4.8 | 9.7 | 0.00 | 0.33 | 0.00 | 78 | 1012.3 |
| 20260507073004 | 12 | 10 | 4.8 | 9.7 | 0.00 | 0.33 | 0.00 | 78 | 1012.3 |
| 20260507072915 | 12 | 10 | 4.8 | 9.7 | 0.00 | 3.66 | 0.00 | 77 | 1012.3 |
| 20260507072704 | 12 | 3 | 4.8 | 9.7 | 0.00 | 3.66 | 0.00 | 77 | 1012.3 |
| 20260507072603 | 12 | 356 | 4.8 | 9.7 | 0.00 | 3.66 | 0.00 | 79 | 1012.3 |
| 20260507072504 | 12 | 355 | 4.8 | 9.7 | 0.00 | 3.66 | 0.00 | 79 | 1012.3 |
| 20260507072404 | 12 | 353 | 4.8 | 9.7 | 0.00 | 3.76 | 0.00 | 79 | 1012.3 |
| 20260507072306 | 12 | 353 | 4.8 | 9.7 | 0.00 | 3.76 | 0.00 | 79 | 1012.3 |
| 20260507072204 | 12 | 350 | 4.8 | 9.7 | 0.00 | 3.76 | 0.00 | 78 | 1012.2 |
| 20260507072104 | 12 | 350 | 4.8 | 11.3 | 0.00 | 3.76 | 0.00 | 78 | 1012.3 |
| 20260507072004 | 12 | 348 | 4.8 | 11.3 | 0.00 | 3.76 | 0.00 | 79 | 1012.3 |
| 20260507071904 | 12 | 343 | 4.8 | 11.3 | 0.00 | 3.76 | 0.00 | 79 | 1012.1 |
| 20260507071704 | 12 | 341 | 3.2 | 11.3 | 0.00 | 3.76 | 0.00 | 80 | 1012.2 |
| 20260507071609 | 12 | 344 | 4.8 | 11.3 | 0.00 | 3.76 | 0.00 | 80 | 1012.3 |
| 20260507071504 | 12 | 345 | 4.8 | 11.3 | 0.00 | 3.76 | 0.00 | 80 | 1012.4 |
| 20260507071403 | 12 | 348 | 4.8 | 11.3 | 0.00 | 3.76 | 0.00 | 80 | 1012.3 |
| 20260507071203 | 12 | 350 | 6.4 | 11.3 | 0.00 | 3.76 | 0.00 | 79 | 1012.3 |
| 20260507071104 | 12 | 349 | 6.4 | 12.9 | 0.00 | 3.76 | 0.00 | 80 | 1012.4 |
| 20260507071004 | 12 | 352 | 6.4 | 12.9 | 0.00 | 3.76 | 0.00 | 81 | 1012.3 |
| 20260507070904 | 12 | 356 | 6.4 | 12.9 | 0.00 | 3.76 | 0.00 | 81 | 1012.3 |
| 20260507070804 | 12 | 358 | 6.4 | 12.9 | 0.00 | 3.76 | 0.00 | 81 | 1012.3 |
| 20260507070703 | 11 | 359 | 6.4 | 12.9 | 0.00 | 3.76 | 0.00 | 81 | 1012.4 |
| 20260507070604 | 11 | 1 | 6.4 | 12.9 | 0.00 | 3.76 | 0.00 | 81 | 1012.3 |
| 20260507070503 | 11 | 1 | 6.4 | 12.9 | 0.00 | 3.76 | 0.00 | 82 | 1012.3 |
| 20260507070403 | 11 | 359 | 6.4 | 12.9 | 0.00 | 3.86 | 0.00 | 81 | 1012.2 |
| 20260507070303 | 11 | 359 | 6.4 | 12.9 | 0.00 | 3.86 | 0.00 | 82 | 1012.3 |
| 20260507070204 | 11 | 359 | 6.4 | 12.9 | 0.00 | 3.86 | 0.00 | 82 | 1012.3 |
| 20260507070104 | 11 | 2 | 6.4 | 11.3 | 0.00 | 3.86 | 0.00 | 82 | 1012.3 |
| 20260507070007 | 11 | 359 | 4.8 | 11.3 | 0.00 | 3.86 | 0.00 | 82 | 1012.3 |
| 20260507065803 | 11 | 1 | 6.4 | 12.9 | 0.00 | 3.86 | 0.00 | 82 | 1012.2 |
| 20260507065708 | 11 | 359 | 6.4 | 14.5 | 0.00 | 3.86 | 0.00 | 82 | 1012.2 |
| 20260507065604 | 11 | 359 | 6.4 | 14.5 | 0.00 | 3.86 | 0.00 | 82 | 1012.2 |
| 20260507065504 | 11 | 357 | 6.4 | 14.5 | 0.00 | 3.86 | 0.00 | 82 | 1012.2 |
| 20260507065415 | 11 | 357 | 6.4 | 14.5 | 0.00 | 3.86 | 0.00 | 82 | 1012.1 |
| 20260507065306 | 11 | 356 | 6.4 | 14.5 | 0.00 | 3.86 | 0.00 | 82 | 1012.1 |
| 20260507065204 | 11 | 354 | 6.4 | 14.5 | 0.00 | 3.86 | 0.00 | 82 | 1012.2 |
| 20260507065103 | 11 | 354 | 6.4 | 14.5 | 0.00 | 3.86 | 0.00 | 82 | 1012.2 |
| 20260507065004 | 11 | 353 | 6.4 | 14.5 | 0.00 | 3.86 | 0.00 | 82 | 1012.1 |
| 20260507064904 | 11 | 350 | 8.0 | 14.5 | 0.00 | 3.86 | 0.00 | 82 | 1012.1 |
| 20260507064804 | 11 | 349 | 6.4 | 14.5 | 0.00 | 3.86 | 0.00 | 82 | 1012.1 |
| 20260507064604 | 11 | 349 | 8.0 | 14.5 | 0.00 | 3.86 | 0.00 | 83 | 1012.2 |
| 20260507064504 | 11 | 353 | 8.0 | 14.5 | 0.00 | 3.86 | 0.00 | 83 | 1012.2 |
| 20260507064408 | 11 | 355 | 8.0 | 14.5 | 0.00 | 3.86 | 0.00 | 83 | 1012.1 |
| 20260507064303 | 11 | 356 | 8.0 | 14.5 | 0.00 | 3.86 | 0.00 | 83 | 1012.1 |
| 20260507064204 | 11 | 357 | 8.0 | 14.5 | 0.00 | 3.86 | 0.00 | 83 | 1012.1 |
| 20260507064115 | 11 | 358 | 8.0 | 14.5 | 0.00 | 3.86 | 0.00 | 83 | 1012.2 |
| 20260507064004 | 11 | 1 | 6.4 | 14.5 | 0.00 | 3.86 | 0.00 | 83 | 1012.3 |
| 20260507063903 | 11 | 3 | 6.4 | 14.5 | 0.00 | 3.86 | 0.00 | 83 | 1012.2 |
| 20260507063804 | 11 | 4 | 6.4 | 14.5 | 0.00 | 3.86 | 0.00 | 83 | 1012.2 |
| 20260507063704 | 11 | 5 | 6.4 | 14.5 | 0.00 | 3.86 | 0.00 | 83 | 1012.2 |
| 20260507063603 | 11 | 9 | 4.8 | 12.9 | 0.00 | 3.86 | 0.00 | 82 | 1012.3 |
| 20260507063504 | 11 | 8 | 4.8 | 12.9 | 0.00 | 3.86 | 0.00 | 84 | 1012.2 |
| 20260507063405 | 11 | 8 | 4.8 | 8.0 | 0.00 | 3.86 | 0.00 | 84 | 1012.2 |
| 20260507063303 | 11 | 9 | 4.8 | 8.0 | 0.00 | 3.86 | 0.00 | 84 | 1012.2 |
| 20260507063203 | 11 | 10 | 4.8 | 8.0 | 0.00 | 3.86 | 0.00 | 84 | 1012.2 |
| 20260507063104 | 11 | 7 | 4.8 | 8.0 | 0.00 | 3.86 | 0.00 | 84 | 1012.1 |
| 20260507063004 | 11 | 6 | 4.8 | 8.0 | 0.00 | 3.86 | 0.00 | 84 | 1012.1 |
| 20260507062903 | 11 | 7 | 4.8 | 8.0 | 0.00 | 2.97 | 0.00 | 85 | 1012.1 |
| 20260507062810 | 11 | 2 | 4.8 | 9.7 | 0.00 | 2.97 | 0.00 | 85 | 1012.1 |
| 20260507062703 | 11 | 3 | 4.8 | 9.7 | 0.00 | 2.97 | 0.00 | 85 | 1012.1 |
| 20260507062603 | 11 | 4 | 4.8 | 9.7 | 0.00 | 2.97 | 0.00 | 85 | 1012.1 |
| 20260507062515 | 11 | 8 | 4.8 | 9.7 | 0.00 | 2.97 | 0.00 | 85 | 1012.1 |
| 20260507062404 | 11 | 8 | 4.8 | 9.7 | 0.00 | 3.05 | 0.00 | 85 | 1012.1 |
| 20260507062306 | 11 | 6 | 4.8 | 9.7 | 0.00 | 3.05 | 0.00 | 86 | 1012.1 |
| 20260507062203 | 11 | 5 | 4.8 | 9.7 | 0.00 | 3.05 | 0.00 | 86 | 1012.1 |
| 20260507062103 | 11 | 8 | 4.8 | 9.7 | 0.00 | 3.05 | 0.00 | 87 | 1012.1 |
| 20260507062004 | 10 | 10 | 4.8 | 9.7 | 0.00 | 3.05 | 0.00 | 87 | 1012.0 |
| 20260507061903 | 10 | 10 | 6.4 | 9.7 | 0.00 | 3.05 | 0.00 | 87 | 1012.1 |
| 20260507061804 | 10 | 11 | 6.4 | 9.7 | 0.00 | 3.05 | 0.00 | 86 | 1012.0 |
| 20260507061703 | 10 | 8 | 6.4 | 9.7 | 0.00 | 3.05 | 0.00 | 86 | 1012.1 |
| 20260507061603 | 10 | 5 | 4.8 | 9.7 | 0.00 | 3.05 | 0.00 | 86 | 1012.0 |
| 20260507061508 | 10 | 1 | 4.8 | 9.7 | 0.00 | 3.05 | 0.00 | 87 | 1012.0 |
| 20260507061404 | 10 | 358 | 4.8 | 9.7 | 0.00 | 3.15 | 0.00 | 86 | 1012.0 |
| 20260507061304 | 10 | 355 | 4.8 | 9.7 | 0.00 | 3.15 | 0.00 | 86 | 1012.0 |
| 20260507061215 | 10 | 353 | 4.8 | 9.7 | 0.00 | 3.15 | 0.00 | 86 | 1012.1 |
| 20260507061104 | 10 | 352 | 4.8 | 9.7 | 0.00 | 3.15 | 0.00 | 87 | 1012.0 |
| 20260507061004 | 10 | 349 | 4.8 | 9.7 | 0.00 | 3.15 | 0.00 | 87 | 1012.0 |
| 20260507060904 | 10 | 348 | 4.8 | 9.7 | 0.00 | 3.25 | 0.00 | 87 | 1011.9 |
| 20260507060704 | 10 | 350 | 4.8 | 9.7 | 0.00 | 3.25 | 0.00 | 87 | 1012.0 |
| 20260507060603 | 10 | 351 | 4.8 | 9.7 | 0.00 | 3.25 | 0.00 | 87 | 1012.0 |
| 20260507060504 | 10 | 353 | 4.8 | 9.7 | 0.00 | 3.25 | 0.00 | 87 | 1012.0 |
| 20260507060404 | 10 | 355 | 4.8 | 9.7 | 0.00 | 3.25 | 0.00 | 87 | 1012.0 |
| 20260507060303 | 10 | 357 | 4.8 | 9.7 | 0.00 | 3.25 | 0.00 | 87 | 1012.0 |
| 20260507060203 | 10 | 359 | 4.8 | 9.7 | 0.00 | 3.25 | 0.00 | 87 | 1012.0 |
| 20260507060103 | 10 | 359 | 3.2 | 8.0 | 0.00 | 3.25 | 0.00 | 87 | 1012.0 |
| 20260507060004 | 10 | 2 | 3.2 | 8.0 | 0.00 | 3.25 | 0.00 | 87 | 1012.0 |
| 20260507055904 | 10 | 4 | 3.2 | 8.0 | 0.00 | 3.35 | 0.00 | 88 | 1012.0 |
| 20260507055803 | 10 | 5 | 3.2 | 8.0 | 0.00 | 3.35 | 0.00 | 88 | 1012.0 |
| 20260507055704 | 10 | 6 | 1.6 | 6.4 | 0.00 | 3.35 | 0.00 | 87 | 1012.0 |
| 20260507055608 | 10 | 3 | 1.6 | 6.4 | 0.00 | 3.35 | 0.00 | 87 | 1012.0 |
| 20260507055504 | 10 | 1 | 1.6 | 6.4 | 0.00 | 3.35 | 0.00 | 88 | 1012.0 |
| 20260507055403 | 10 | 5 | 1.6 | 6.4 | 0.00 | 3.45 | 0.00 | 89 | 1012.0 |
| 20260507055314 | 10 | 7 | 1.6 | 6.4 | 0.00 | 3.45 | 0.00 | 89 | 1012.0 |
| 20260507055205 | 10 | 8 | 1.6 | 6.4 | 0.00 | 3.45 | 0.00 | 89 | 1011.9 |
| 20260507055103 | 10 | 8 | 1.6 | 6.4 | 0.00 | 3.45 | 0.00 | 89 | 1012.0 |
| 20260507055004 | 10 | 7 | 3.2 | 6.4 | 0.00 | 3.45 | 0.00 | 89 | 1012.0 |
| 20260507054903 | 10 | 5 | 3.2 | 6.4 | 0.00 | 3.56 | 0.00 | 89 | 1012.0 |
| 20260507054805 | 10 | 5 | 1.6 | 6.4 | 0.00 | 3.56 | 0.00 | 88 | 1012.0 |
| 20260507054704 | 10 | 7 | 1.6 | 6.4 | 0.00 | 3.56 | 0.00 | 89 | 1012.0 |
| 20260507054604 | 10 | 13 | 1.6 | 6.4 | 0.00 | 3.56 | 0.00 | 89 | 1012.1 |
| 20260507054504 | 10 | 11 | 1.6 | 9.7 | 0.00 | 3.56 | 0.00 | 88 | 1012.1 |
| 20260507054404 | 10 | 4 | 3.2 | 9.7 | 0.00 | 3.56 | 0.00 | 88 | 1012.0 |
| 20260507054104 | 10 | 1 | 3.2 | 9.7 | 0.00 | 3.56 | 0.00 | 89 | 1011.8 |
| 20260507053904 | 10 | 358 | 1.6 | 9.7 | 0.00 | 3.56 | 0.00 | 89 | 1011.9 |
| 20260507053705 | 10 | 357 | 3.2 | 9.7 | 0.00 | 3.56 | 0.00 | 89 | 1011.9 |
| 20260507053604 | 10 | 356 | 3.2 | 9.7 | 0.00 | 3.56 | 0.00 | 89 | 1011.9 |
| 20260507053504 | 10 | 356 | 3.2 | 8.0 | 0.00 | 3.56 | 0.00 | 89 | 1011.9 |
| 20260507053404 | 10 | 355 | 1.6 | 6.4 | 0.00 | 3.56 | 0.00 | 90 | 1012.0 |
| 20260507053304 | 10 | 353 | 1.6 | 6.4 | 0.00 | 3.56 | 0.00 | 90 | 1011.9 |
| 20260507053204 | 10 | 355 | 3.2 | 6.4 | 0.00 | 3.56 | 0.00 | 90 | 1011.8 |
| 20260507053104 | 10 | 353 | 3.2 | 6.4 | 0.00 | 3.56 | 0.00 | 90 | 1011.9 |
| 20260507053005 | 10 | 353 | 3.2 | 6.4 | 0.00 | 3.56 | 0.00 | 90 | 1011.9 |
| 20260507052604 | 10 | 345 | 3.2 | 6.4 | 0.00 | 3.56 | 0.00 | 90 | 1012.0 |
| 20260507052504 | 10 | 343 | 1.6 | 6.4 | 0.00 | 3.56 | 0.00 | 90 | 1011.9 |
| 20260507052415 | 10 | 342 | 1.6 | 6.4 | 0.00 | 3.56 | 0.00 | 90 | 1012.0 |
| 20260507052306 | 10 | 341 | 1.6 | 6.4 | 0.00 | 3.56 | 0.00 | 90 | 1012.0 |
| 20260507052203 | 10 | 329 | 1.6 | 6.4 | 0.00 | 3.56 | 0.00 | 90 | 1012.0 |
| 20260507052104 | 10 | 321 | 1.6 | 4.8 | 0.00 | 3.56 | 0.00 | 90 | 1012.0 |
| 20260507052004 | 10 | 322 | 1.6 | 4.8 | 0.00 | 3.56 | 0.00 | 90 | 1012.0 |
| 20260507051904 | 10 | 323 | 1.6 | 4.8 | 0.00 | 3.66 | 0.00 | 90 | 1012.1 |
| 20260507051804 | 10 | 324 | 1.6 | 4.8 | 0.00 | 3.66 | 0.00 | 90 | 1012.0 |
| 20260507051704 | 10 | 325 | 1.6 | 4.8 | 0.00 | 3.66 | 0.00 | 90 | 1012.0 |
| 20260507051604 | 10 | 325 | 1.6 | 4.8 | 0.00 | 3.66 | 0.00 | 91 | 1012.0 |
| 20260507051504 | 10 | 327 | 1.6 | 4.8 | 0.00 | 3.66 | 0.00 | 91 | 1012.0 |
| 20260507051408 | 10 | 330 | 1.6 | 4.8 | 0.00 | 3.66 | 0.00 | 91 | 1011.9 |
| 20260507051304 | 10 | 333 | 1.6 | 4.8 | 0.00 | 3.66 | 0.00 | 91 | 1011.9 |
| 20260507051004 | 10 | 2 | 1.6 | 4.8 | 0.00 | 3.66 | 0.00 | 90 | 1011.8 |
| 20260507050904 | 10 | 15 | 1.6 | 3.2 | 0.00 | 3.76 | 0.00 | 91 | 1011.8 |
| 20260507050803 | 10 | 29 | 1.6 | 4.8 | 0.00 | 3.76 | 0.00 | 91 | 1011.8 |
| 20260507050604 | 10 | 29 | 1.6 | 4.8 | 0.00 | 3.76 | 0.00 | 91 | 1011.8 |
| 20260507050504 | 10 | 28 | 1.6 | 4.8 | 0.00 | 3.76 | 0.00 | 91 | 1011.9 |
| 20260507050403 | 10 | 25 | 1.6 | 4.8 | 0.00 | 3.76 | 0.00 | 91 | 1011.8 |
| 20260507050204 | 10 | 26 | 1.6 | 4.8 | 0.00 | 3.76 | 0.00 | 91 | 1011.8 |
| 20260507050104 | 10 | 24 | 0.0 | 4.8 | 0.00 | 3.76 | 0.00 | 91 | 1011.8 |
| 20260507050005 | 10 | 11 | 0.0 | 4.8 | 0.00 | 3.76 | 0.00 | 91 | 1011.7 |
| 20260507045903 | 10 | 8 | 0.0 | 4.8 | 0.00 | 3.76 | 0.00 | 91 | 1011.8 |
| 20260507045803 | 10 | 328 | 0.0 | 3.2 | 0.00 | 3.76 | 0.00 | 91 | 1011.8 |
| 20260507045704 | 10 | 312 | 0.0 | 1.6 | 0.00 | 3.76 | 0.00 | 91 | 1011.8 |
| 20260507045604 | 10 | 329 | 0.0 | 3.2 | 0.00 | 3.76 | 0.00 | 92 | 1011.8 |
| 20260507045508 | 10 | 335 | 0.0 | 3.2 | 0.00 | 3.76 | 0.00 | 92 | 1011.7 |
| 20260507045306 | 10 | 343 | 0.0 | 3.2 | 0.00 | 3.76 | 0.00 | 92 | 1011.7 |
| 20260507045214 | 10 | 344 | 0.0 | 3.2 | 0.00 | 3.76 | 0.00 | 92 | 1011.8 |
| 20260507045104 | 10 | 347 | 0.0 | 3.2 | 0.00 | 3.76 | 0.00 | 92 | 1011.8 |
| 20260507044904 | 9 | 353 | 1.6 | 3.2 | 0.00 | 3.76 | 0.00 | 92 | 1011.7 |
| 20260507044804 | 9 | 357 | 0.0 | 3.2 | 0.00 | 3.76 | 0.00 | 92 | 1011.7 |
| 20260507044704 | 9 | 357 | 1.6 | 3.2 | 0.00 | 3.76 | 0.00 | 92 | 1011.6 |
| 20260507044604 | 9 | 357 | 1.6 | 3.2 | 0.00 | 3.76 | 0.00 | 92 | 1011.7 |
| 20260507044504 | 9 | 6 | 1.6 | 4.8 | 0.00 | 3.76 | 0.00 | 92 | 1011.6 |
| 20260507044403 | 9 | 10 | 1.6 | 4.8 | 0.00 | 3.86 | 0.00 | 92 | 1011.6 |
| 20260507044303 | 9 | 10 | 1.6 | 4.8 | 0.00 | 3.86 | 0.00 | 92 | 1011.7 |
| 20260507044103 | 9 | 9 | 1.6 | 4.8 | 0.00 | 3.86 | 0.00 | 92 | 1011.5 |
| 20260507044004 | 9 | 15 | 1.6 | 4.8 | 0.00 | 3.86 | 0.00 | 92 | 1011.5 |
| 20260507043913 | 9 | 15 | 1.6 | 4.8 | 0.00 | 3.86 | 0.00 | 92 | 1011.4 |
| 20260507043803 | 9 | 16 | 3.2 | 4.8 | 0.00 | 3.86 | 0.00 | 92 | 1011.5 |
| 20260507043704 | 9 | 17 | 3.2 | 4.8 | 0.00 | 3.86 | 0.00 | 92 | 1011.5 |
| 20260507043603 | 9 | 19 | 1.6 | 4.8 | 0.00 | 3.86 | 0.00 | 92 | 1011.4 |
| 20260507043504 | 9 | 17 | 1.6 | 4.8 | 0.00 | 3.86 | 0.00 | 92 | 1011.5 |
| 20260507043403 | 9 | 15 | 1.6 | 4.8 | 0.00 | 3.86 | 0.00 | 92 | 1011.4 |
| 20260507043304 | 9 | 16 | 1.6 | 4.8 | 0.00 | 3.86 | 0.00 | 92 | 1011.3 |
| 20260507043204 | 9 | 18 | 1.6 | 4.8 | 0.00 | 3.86 | 0.00 | 92 | 1011.3 |
| 20260507043004 | 9 | 11 | 1.6 | 4.8 | 0.00 | 3.86 | 0.00 | 92 | 1011.2 |
| 20260507042903 | 9 | 11 | 1.6 | 4.8 | 0.00 | 3.86 | 0.00 | 92 | 1011.2 |
| 20260507042804 | 9 | 9 | 0.0 | 3.2 | 0.00 | 3.86 | 0.00 | 92 | 1011.1 |
| 20260507042608 | 9 | 2 | 0.0 | 3.2 | 0.00 | 3.86 | 0.00 | 92 | 1011.2 |
| 20260507042504 | 9 | 355 | 0.0 | 3.2 | 0.00 | 3.86 | 0.00 | 92 | 1011.1 |
| 20260507042404 | 9 | 353 | 0.0 | 1.6 | 0.00 | 3.86 | 0.00 | 92 | 1011.0 |
| 20260507042315 | 9 | 353 | 0.0 | 1.6 | 0.00 | 3.86 | 0.00 | 92 | 1011.1 |
| 20260507042204 | 9 | 353 | 0.0 | 1.6 | 0.00 | 3.86 | 0.00 | 92 | 1011.1 |
| 20260507042104 | 9 | 353 | 0.0 | 1.6 | 0.00 | 3.86 | 0.00 | 92 | 1011.1 |
| 20260507041904 | 9 | 350 | 0.0 | 3.2 | 0.00 | 3.86 | 0.00 | 92 | 1011.1 |
| 20260507041803 | 9 | 351 | 0.0 | 3.2 | 0.00 | 3.86 | 0.00 | 92 | 1011.0 |
| 20260507041704 | 9 | 7 | 1.6 | 3.2 | 0.00 | 3.86 | 0.00 | 92 | 1011.0 |
| 20260507041604 | 9 | 21 | 1.6 | 3.2 | 0.00 | 3.86 | 0.00 | 92 | 1010.9 |
| 20260507041504 | 9 | 22 | 1.6 | 3.2 | 0.00 | 3.86 | 0.00 | 92 | 1011.0 |
| 20260507041404 | 9 | 21 | 1.6 | 3.2 | 0.00 | 3.86 | 0.00 | 92 | 1011.0 |
| 20260507041309 | 9 | 21 | 1.6 | 3.2 | 0.00 | 3.86 | 0.00 | 92 | 1011.0 |
| 20260507041104 | 9 | 25 | 1.6 | 3.2 | 0.00 | 3.86 | 0.00 | 92 | 1011.0 |
| 20260507041015 | 9 | 27 | 1.6 | 3.2 | 0.00 | 3.86 | 0.00 | 92 | 1010.9 |
| 20260507040903 | 9 | 36 | 1.6 | 3.2 | 0.00 | 3.86 | 0.00 | 92 | 1010.9 |
| 20260507040703 | 9 | 15 | 0.0 | 3.2 | 0.00 | 3.86 | 0.00 | 92 | 1010.9 |
| 20260507040603 | 9 | 357 | 0.0 | 3.2 | 0.00 | 3.86 | 0.00 | 92 | 1010.9 |
| 20260507040505 | 9 | 350 | 0.0 | 3.2 | 0.00 | 3.86 | 0.00 | 92 | 1010.9 |
| 20260507040404 | 9 | 350 | 0.0 | 3.2 | 0.00 | 3.86 | 0.00 | 92 | 1010.9 |
| 20260507040304 | 9 | 350 | 0.0 | 3.2 | 0.00 | 3.86 | 0.00 | 92 | 1010.9 |
| 20260507040204 | 9 | 346 | 0.0 | 3.2 | 0.00 | 3.86 | 0.00 | 92 | 1010.8 |
| 20260507040104 | 9 | 335 | 1.6 | 4.8 | 0.00 | 3.86 | 0.00 | 92 | 1010.9 |
| 20260507040007 | 9 | 329 | 1.6 | 4.8 | 0.00 | 3.86 | 0.00 | 92 | 1010.9 |
| 20260507035904 | 9 | 324 | 1.6 | 4.8 | 0.00 | 3.86 | 0.00 | 92 | 1010.9 |
| 20260507035803 | 9 | 320 | 1.6 | 4.8 | 0.00 | 3.86 | 0.00 | 92 | 1010.8 |
| 20260507035714 | 9 | 317 | 1.6 | 4.8 | 0.00 | 3.86 | 0.00 | 92 | 1010.9 |
| 20260507035604 | 9 | 314 | 1.6 | 4.8 | 0.00 | 3.86 | 0.00 | 92 | 1010.9 |
| 20260507035504 | 9 | 314 | 1.6 | 4.8 | 0.00 | 3.86 | 0.00 | 92 | 1011.0 |
| 20260507035403 | 9 | 314 | 1.6 | 4.8 | 0.00 | 3.86 | 0.00 | 92 | 1010.9 |
| 20260507035306 | 9 | 313 | 1.6 | 4.8 | 0.00 | 3.86 | 0.00 | 92 | 1010.9 |
| 20260507035204 | 9 | 310 | 1.6 | 4.8 | 0.00 | 3.86 | 0.00 | 92 | 1011.0 |
| 20260507035104 | 9 | 309 | 1.6 | 4.8 | 0.00 | 3.86 | 0.00 | 92 | 1010.9 |
| 20260507034804 | 9 | 310 | 1.6 | 4.8 | 0.00 | 3.86 | 0.00 | 92 | 1010.9 |
| 20260507034703 | 9 | 309 | 1.6 | 4.8 | 0.00 | 3.86 | 0.00 | 92 | 1010.9 |
| 20260507034603 | 9 | 308 | 1.6 | 4.8 | 0.00 | 3.86 | 0.00 | 92 | 1010.8 |
| 20260507034505 | 9 | 306 | 1.6 | 4.8 | 0.00 | 3.86 | 0.00 | 92 | 1010.7 |
| 20260507034304 | 9 | 307 | 1.6 | 4.8 | 0.00 | 3.86 | 0.00 | 92 | 1010.9 |
| 20260507033903 | 9 | 302 | 3.2 | 6.4 | 0.00 | 3.86 | 0.00 | 92 | 1010.9 |
| 20260507033803 | 9 | 298 | 3.2 | 6.4 | 0.00 | 3.86 | 0.00 | 92 | 1010.9 |
| 20260507033603 | 9 | 291 | 3.2 | 6.4 | 0.00 | 3.86 | 0.00 | 92 | 1010.9 |
| 20260507033504 | 9 | 289 | 3.2 | 6.4 | 0.00 | 3.86 | 0.00 | 92 | 1010.9 |
| 20260507033404 | 9 | 288 | 3.2 | 6.4 | 0.00 | 3.86 | 0.00 | 92 | 1010.9 |
| 20260507033304 | 9 | 286 | 3.2 | 6.4 | 0.00 | 3.86 | 0.00 | 92 | 1010.9 |
| 20260507033204 | 9 | 281 | 3.2 | 6.4 | 0.00 | 3.86 | 0.00 | 92 | 1010.9 |
| 20260507033103 | 9 | 281 | 3.2 | 6.4 | 0.00 | 3.86 | 0.00 | 92 | 1010.9 |
| 20260507033004 | 9 | 283 | 3.2 | 6.4 | 0.00 | 3.86 | 0.00 | 92 | 1011.0 |
| 20260507032903 | 9 | 286 | 3.2 | 6.4 | 0.00 | 3.86 | 0.00 | 92 | 1010.9 |
| 20260507032804 | 9 | 291 | 1.6 | 6.4 | 0.00 | 3.86 | 0.00 | 92 | 1010.8 |
| 20260507032703 | 9 | 293 | 1.6 | 6.4 | 0.00 | 3.86 | 0.00 | 92 | 1010.9 |
| 20260507032603 | 9 | 300 | 1.6 | 6.4 | 0.00 | 3.86 | 0.00 | 92 | 1010.8 |
| 20260507032511 | 9 | 311 | 1.6 | 4.8 | 0.00 | 3.86 | 0.00 | 92 | 1010.8 |
| 20260507032305 | 9 | 326 | 0.0 | 3.2 | 0.00 | 3.86 | 0.00 | 92 | 1010.8 |
| 20260507032215 | 9 | 326 | 0.0 | 3.2 | 0.00 | 3.86 | 0.00 | 92 | 1010.8 |
| 20260507032004 | 9 | 326 | 1.6 | 4.8 | 0.00 | 3.86 | 0.00 | 92 | 1010.9 |
| 20260507031904 | 9 | 326 | 1.6 | 4.8 | 0.00 | 3.86 | 0.00 | 92 | 1010.8 |
| 20260507031804 | 9 | 326 | 1.6 | 4.8 | 0.00 | 3.86 | 0.00 | 92 | 1010.8 |
| 20260507031704 | 9 | 326 | 1.6 | 4.8 | 0.00 | 3.86 | 0.00 | 92 | 1010.8 |
| 20260507031603 | 10 | 328 | 1.6 | 4.8 | 0.00 | 3.86 | 0.00 | 92 | 1010.8 |
| 20260507031504 | 10 | 330 | 1.6 | 4.8 | 0.00 | 3.86 | 0.00 | 92 | 1010.7 |
| 20260507031404 | 10 | 332 | 1.6 | 4.8 | 0.00 | 3.86 | 0.00 | 92 | 1010.8 |
| 20260507031304 | 10 | 332 | 1.6 | 4.8 | 0.00 | 3.86 | 0.00 | 92 | 1010.8 |
| 20260507031203 | 10 | 334 | 1.6 | 4.8 | 0.00 | 3.86 | 0.00 | 92 | 1010.8 |
| 20260507031103 | 10 | 337 | 1.6 | 4.8 | 0.00 | 3.86 | 0.00 | 92 | 1010.8 |
| 20260507031004 | 10 | 343 | 1.6 | 4.8 | 0.00 | 3.86 | 0.00 | 92 | 1010.8 |
| 20260507030908 | 10 | 347 | 1.6 | 4.8 | 0.00 | 3.86 | 0.00 | 92 | 1010.8 |
| 20260507030803 | 10 | 352 | 1.6 | 4.8 | 0.00 | 3.86 | 0.00 | 92 | 1010.8 |
| 20260507030704 | 10 | 353 | 1.6 | 4.8 | 0.00 | 3.86 | 0.00 | 92 | 1010.7 |
| 20260507030504 | 10 | 355 | 1.6 | 4.8 | 0.00 | 3.86 | 0.00 | 92 | 1010.7 |
| 20260507030403 | 10 | 354 | 1.6 | 4.8 | 0.00 | 3.86 | 0.00 | 92 | 1010.8 |
| 20260507030303 | 10 | 353 | 1.6 | 4.8 | 0.00 | 3.86 | 0.00 | 92 | 1010.8 |
| 20260507030204 | 10 | 352 | 1.6 | 4.8 | 0.00 | 3.86 | 0.00 | 92 | 1010.7 |
| 20260507030004 | 10 | 345 | 1.6 | 4.8 | 0.00 | 3.86 | 0.00 | 92 | 1010.8 |
| 20260507025903 | 10 | 341 | 1.6 | 4.8 | 0.00 | 3.86 | 0.00 | 92 | 1010.7 |
| 20260507025804 | 10 | 339 | 3.2 | 4.8 | 0.00 | 3.86 | 0.00 | 92 | 1010.8 |
| 20260507025705 | 10 | 338 | 3.2 | 4.8 | 0.00 | 3.86 | 0.00 | 92 | 1010.8 |
| 20260507025604 | 10 | 337 | 3.2 | 4.8 | 0.00 | 3.86 | 0.00 | 92 | 1010.8 |
| 20260507025505 | 10 | 334 | 3.2 | 4.8 | 0.00 | 3.86 | 0.00 | 92 | 1010.8 |
| 20260507025403 | 10 | 337 | 3.2 | 6.4 | 0.00 | 3.86 | 0.00 | 92 | 1010.8 |
| 20260507025204 | 10 | 342 | 4.8 | 9.7 | 0.00 | 3.86 | 0.00 | 92 | 1010.8 |
| 20260507025103 | 10 | 342 | 4.8 | 9.7 | 0.00 | 3.86 | 0.00 | 92 | 1010.8 |
| 20260507025015 | 10 | 342 | 4.8 | 9.7 | 0.00 | 3.86 | 0.00 | 92 | 1010.7 |
| 20260507024903 | 10 | 343 | 4.8 | 9.7 | 0.00 | 3.86 | 0.00 | 92 | 1010.7 |
| 20260507024704 | 10 | 342 | 6.4 | 9.7 | 0.00 | 3.86 | 0.00 | 92 | 1010.8 |
| 20260507024604 | 10 | 342 | 6.4 | 9.7 | 0.00 | 3.86 | 0.00 | 92 | 1010.7 |
| 20260507024503 | 10 | 342 | 6.4 | 9.7 | 0.00 | 3.86 | 0.00 | 92 | 1010.7 |
| 20260507024403 | 10 | 340 | 6.4 | 9.7 | 0.00 | 3.86 | 0.00 | 92 | 1010.7 |
| 20260507024304 | 10 | 338 | 6.4 | 9.7 | 0.00 | 3.86 | 0.00 | 92 | 1010.7 |
| 20260507024203 | 10 | 335 | 6.4 | 9.7 | 0.00 | 3.86 | 0.00 | 92 | 1010.7 |
| 20260507024104 | 10 | 333 | 4.8 | 9.7 | 0.00 | 3.86 | 0.00 | 92 | 1010.7 |
| 20260507024005 | 10 | 331 | 4.8 | 9.7 | 0.00 | 3.86 | 0.00 | 92 | 1010.7 |
| 20260507023904 | 10 | 329 | 4.8 | 9.7 | 0.00 | 3.86 | 0.00 | 92 | 1010.7 |
| 20260507023804 | 10 | 326 | 4.8 | 8.0 | 0.00 | 3.86 | 0.00 | 92 | 1010.8 |
| 20260507023703 | 10 | 323 | 3.2 | 8.0 | 0.00 | 3.86 | 0.00 | 92 | 1010.8 |
| 20260507023603 | 10 | 321 | 3.2 | 6.4 | 0.00 | 3.86 | 0.00 | 92 | 1010.8 |
| 20260507023504 | 10 | 317 | 3.2 | 6.4 | 0.00 | 3.86 | 0.00 | 92 | 1010.7 |
| 20260507023405 | 10 | 314 | 3.2 | 4.8 | 0.00 | 3.86 | 0.00 | 92 | 1010.8 |
| 20260507023305 | 10 | 314 | 1.6 | 4.8 | 0.00 | 3.86 | 0.00 | 92 | 1010.8 |
| 20260507023204 | 10 | 313 | 1.6 | 4.8 | 0.00 | 3.86 | 0.00 | 92 | 1010.8 |
| 20260507023004 | 10 | 316 | 1.6 | 4.8 | 0.00 | 3.86 | 0.00 | 92 | 1010.7 |
| 20260507022904 | 10 | 318 | 1.6 | 4.8 | 0.00 | 3.86 | 0.00 | 92 | 1010.7 |
| 20260507022815 | 10 | 318 | 1.6 | 6.4 | 0.00 | 3.86 | 0.00 | 92 | 1010.7 |
| 20260507022704 | 10 | 320 | 1.6 | 8.0 | 0.00 | 3.86 | 0.00 | 92 | 1010.7 |
| 20260507022604 | 10 | 321 | 3.2 | 8.0 | 0.00 | 3.86 | 0.00 | 92 | 1010.7 |
| 20260507022504 | 10 | 321 | 3.2 | 8.0 | 0.00 | 3.86 | 0.00 | 92 | 1010.7 |
| 20260507022404 | 10 | 322 | 3.2 | 8.0 | 0.00 | 3.86 | 0.00 | 92 | 1010.7 |
| 20260507022306 | 10 | 322 | 4.8 | 8.0 | 0.00 | 3.86 | 0.00 | 92 | 1010.6 |
| 20260507022203 | 10 | 322 | 4.8 | 8.0 | 0.00 | 3.86 | 0.00 | 92 | 1010.7 |
| 20260507022104 | 10 | 323 | 4.8 | 8.0 | 0.00 | 3.86 | 0.00 | 92 | 1010.8 |
| 20260507022005 | 10 | 324 | 4.8 | 8.0 | 0.00 | 3.86 | 0.00 | 92 | 1010.7 |
| 20260507021904 | 10 | 325 | 4.8 | 8.0 | 0.00 | 3.86 | 0.00 | 92 | 1010.7 |
| 20260507021803 | 10 | 327 | 4.8 | 8.0 | 0.00 | 3.86 | 0.00 | 92 | 1010.7 |
| 20260507021704 | 10 | 329 | 4.8 | 8.0 | 0.00 | 3.86 | 0.00 | 92 | 1010.6 |
| 20260507021604 | 10 | 332 | 4.8 | 8.0 | 0.00 | 3.86 | 0.00 | 92 | 1010.7 |
| 20260507021504 | 10 | 333 | 4.8 | 8.0 | 0.00 | 3.86 | 0.00 | 92 | 1010.7 |
| 20260507021404 | 10 | 335 | 4.8 | 8.0 | 0.00 | 3.86 | 0.00 | 92 | 1010.6 |
| 20260507021305 | 10 | 337 | 4.8 | 6.4 | 0.00 | 3.86 | 0.00 | 92 | 1010.6 |
| 20260507021203 | 10 | 339 | 4.8 | 6.4 | 0.00 | 3.86 | 0.00 | 92 | 1010.7 |
| 20260507021103 | 10 | 341 | 4.8 | 6.4 | 0.00 | 3.86 | 0.00 | 92 | 1010.6 |
| 20260507021004 | 10 | 343 | 4.8 | 6.4 | 0.00 | 3.86 | 0.00 | 92 | 1010.7 |
| 20260507020903 | 10 | 342 | 4.8 | 6.4 | 0.00 | 3.86 | 0.00 | 92 | 1010.7 |
| 20260507020804 | 10 | 345 | 4.8 | 8.0 | 0.00 | 3.86 | 0.00 | 92 | 1010.7 |
| 20260507020704 | 10 | 345 | 4.8 | 8.0 | 0.00 | 3.86 | 0.00 | 92 | 1010.7 |
| 20260507020504 | 10 | 346 | 4.8 | 8.0 | 0.00 | 3.86 | 0.00 | 92 | 1010.7 |
| 20260507020404 | 10 | 347 | 4.8 | 8.0 | 0.00 | 3.86 | 0.00 | 92 | 1010.7 |
| 20260507020308 | 10 | 347 | 4.8 | 8.0 | 0.00 | 3.86 | 0.00 | 92 | 1010.7 |
| 20260507020204 | 10 | 348 | 4.8 | 8.0 | 0.00 | 3.86 | 0.00 | 92 | 1010.6 |
| 20260507020104 | 10 | 348 | 4.8 | 8.0 | 0.00 | 3.86 | 0.00 | 92 | 1010.6 |
| 20260507020014 | 10 | 347 | 4.8 | 8.0 | 0.00 | 3.86 | 0.00 | 92 | 1010.6 |
| 20260507015903 | 10 | 346 | 4.8 | 8.0 | 0.00 | 3.86 | 0.00 | 92 | 1010.7 |
| 20260507015803 | 10 | 345 | 4.8 | 8.0 | 0.00 | 3.86 | 0.00 | 92 | 1010.7 |
| 20260507015704 | 10 | 343 | 4.8 | 8.0 | 0.00 | 3.86 | 0.00 | 92 | 1010.7 |
| 20260507015604 | 10 | 340 | 4.8 | 8.0 | 0.00 | 3.86 | 0.00 | 92 | 1010.7 |
| 20260507015504 | 10 | 337 | 4.8 | 8.0 | 0.00 | 3.86 | 0.00 | 92 | 1010.6 |
| 20260507015104 | 10 | 326 | 4.8 | 8.0 | 0.00 | 3.86 | 0.00 | 92 | 1010.7 |
| 20260507015007 | 10 | 326 | 4.8 | 8.0 | 0.00 | 3.86 | 0.00 | 92 | 1010.6 |
| 20260507014903 | 10 | 327 | 3.2 | 8.0 | 0.00 | 3.86 | 0.00 | 92 | 1010.7 |
| 20260507014803 | 10 | 323 | 3.2 | 8.0 | 0.00 | 3.86 | 0.00 | 92 | 1010.7 |
| 20260507014504 | 10 | 326 | 1.6 | 6.4 | 0.00 | 3.86 | 0.00 | 92 | 1010.6 |
| 20260507014404 | 10 | 334 | 1.6 | 6.4 | 0.00 | 3.86 | 0.00 | 92 | 1010.6 |
| 20260507014303 | 10 | 343 | 1.6 | 4.8 | 0.00 | 3.86 | 0.00 | 92 | 1010.5 |
| 20260507014203 | 10 | 352 | 1.6 | 6.4 | 0.00 | 3.86 | 0.00 | 92 | 1010.7 |
| 20260507014004 | 10 | 348 | 3.2 | 9.7 | 0.00 | 3.86 | 0.00 | 92 | 1010.6 |
| 20260507013803 | 10 | 346 | 3.2 | 9.7 | 0.00 | 3.86 | 0.00 | 92 | 1010.5 |
| 20260507013706 | 10 | 347 | 3.2 | 9.7 | 0.00 | 3.86 | 0.00 | 92 | 1010.5 |
| 20260507013604 | 10 | 346 | 4.8 | 9.7 | 0.00 | 3.86 | 0.00 | 92 | 1010.6 |
| 20260507013414 | 10 | 345 | 4.8 | 9.7 | 0.00 | 3.86 | 0.00 | 92 | 1010.5 |
| 20260507013304 | 10 | 343 | 4.8 | 9.7 | 0.00 | 3.86 | 0.00 | 92 | 1010.5 |
| 20260507013204 | 10 | 341 | 4.8 | 9.7 | 0.00 | 3.86 | 0.00 | 92 | 1010.5 |
| 20260507013104 | 10 | 339 | 6.4 | 9.7 | 0.00 | 3.86 | 0.00 | 92 | 1010.5 |
| 20260507012804 | 10 | 332 | 4.8 | 8.0 | 0.00 | 3.86 | 0.00 | 92 | 1010.4 |
| 20260507012704 | 10 | 329 | 4.8 | 8.0 | 0.00 | 3.86 | 0.00 | 92 | 1010.5 |
| 20260507012604 | 10 | 326 | 4.8 | 8.0 | 0.00 | 3.86 | 0.00 | 92 | 1010.5 |
| 20260507012407 | 10 | 321 | 3.2 | 8.0 | 0.00 | 3.86 | 0.00 | 92 | 1010.4 |
| 20260507012306 | 10 | 320 | 3.2 | 8.0 | 0.00 | 3.86 | 0.00 | 92 | 1010.4 |
| 20260507012204 | 10 | 319 | 3.2 | 8.0 | 0.00 | 3.86 | 0.00 | 92 | 1010.4 |
| 20260507012113 | 10 | 317 | 3.2 | 8.0 | 0.00 | 3.86 | 0.00 | 91 | 1010.4 |
| 20260507011903 | 10 | 319 | 3.2 | 6.4 | 0.00 | 3.86 | 0.00 | 92 | 1010.4 |
| 20260507011803 | 10 | 322 | 3.2 | 6.4 | 0.00 | 3.86 | 0.00 | 92 | 1010.4 |
| 20260507011704 | 10 | 326 | 3.2 | 6.4 | 0.00 | 3.86 | 0.00 | 92 | 1010.3 |
| 20260507011603 | 10 | 327 | 3.2 | 6.4 | 0.00 | 3.86 | 0.00 | 92 | 1010.4 |
| 20260507011403 | 10 | 333 | 3.2 | 6.4 | 0.00 | 3.86 | 0.00 | 92 | 1010.3 |
| 20260507011304 | 10 | 334 | 3.2 | 6.4 | 0.00 | 3.86 | 0.00 | 92 | 1010.4 |
| 20260507011203 | 10 | 334 | 4.8 | 8.0 | 0.00 | 3.86 | 0.00 | 92 | 1010.4 |
| 20260507011004 | 10 | 334 | 4.8 | 8.0 | 0.00 | 3.86 | 0.00 | 91 | 1010.4 |
| 20260507010807 | 10 | 332 | 4.8 | 8.0 | 0.00 | 3.86 | 0.00 | 91 | 1010.3 |
| 20260507010704 | 10 | 330 | 4.8 | 8.0 | 0.00 | 3.86 | 0.00 | 91 | 1010.4 |
| 20260507010603 | 10 | 329 | 4.8 | 8.0 | 0.00 | 3.86 | 0.00 | 91 | 1010.5 |
| 20260507010513 | 10 | 326 | 4.8 | 8.0 | 0.00 | 3.86 | 0.00 | 92 | 1010.3 |
| 20260507010404 | 10 | 324 | 4.8 | 8.0 | 0.00 | 3.86 | 0.00 | 92 | 1010.3 |
| 20260507010304 | 10 | 322 | 4.8 | 8.0 | 0.00 | 3.86 | 0.00 | 92 | 1010.4 |
| 20260507010005 | 10 | 315 | 4.8 | 8.0 | 0.00 | 3.86 | 0.00 | 92 | 1010.3 |
| 20260507005904 | 11 | 313 | 4.8 | 8.0 | 0.00 | 3.86 | 0.00 | 92 | 1010.3 |
| 20260507005803 | 11 | 311 | 4.8 | 8.0 | 0.00 | 3.86 | 0.00 | 92 | 1010.4 |
| 20260507005711 | 11 | 309 | 4.8 | 8.0 | 0.00 | 3.86 | 0.00 | 91 | 1010.3 |
| 20260507005603 | 11 | 308 | 3.2 | 8.0 | 0.00 | 3.86 | 0.00 | 91 | 1010.3 |
| 20260507005503 | 11 | 308 | 4.8 | 8.0 | 0.00 | 3.86 | 0.00 | 91 | 1010.4 |
| 20260507005404 | 11 | 307 | 4.8 | 8.0 | 0.00 | 3.86 | 0.00 | 91 | 1010.3 |
| 20260507005305 | 11 | 306 | 4.8 | 8.0 | 0.00 | 3.86 | 0.00 | 91 | 1010.3 |
| 20260507005103 | 11 | 307 | 3.2 | 6.4 | 0.00 | 3.86 | 0.00 | 91 | 1010.1 |
| 20260507005003 | 11 | 307 | 3.2 | 6.4 | 0.00 | 3.86 | 0.00 | 91 | 1010.1 |
| 20260507004915 | 11 | 307 | 3.2 | 6.4 | 0.00 | 3.86 | 0.00 | 91 | 1010.2 |
| 20260507004803 | 11 | 307 | 3.2 | 6.4 | 0.00 | 3.86 | 0.00 | 91 | 1010.1 |
| 20260507004704 | 11 | 307 | 3.2 | 6.4 | 0.00 | 3.86 | 0.00 | 91 | 1010.2 |
| 20260507004603 | 11 | 308 | 3.2 | 6.4 | 0.00 | 3.86 | 0.00 | 91 | 1010.1 |
| 20260507004504 | 11 | 307 | 3.2 | 6.4 | 0.00 | 3.86 | 0.00 | 91 | 1010.1 |
| 20260507004403 | 11 | 308 | 1.6 | 6.4 | 0.00 | 3.86 | 0.00 | 91 | 1010.0 |
| 20260507004304 | 11 | 310 | 1.6 | 6.4 | 0.00 | 3.86 | 0.00 | 91 | 1010.0 |
| 20260507004205 | 11 | 313 | 1.6 | 6.4 | 0.00 | 3.86 | 0.00 | 91 | 1010.1 |
| 20260507004104 | 11 | 311 | 1.6 | 6.4 | 0.00 | 3.86 | 0.00 | 91 | 1010.1 |
| 20260507004003 | 11 | 312 | 1.6 | 3.2 | 0.00 | 3.86 | 0.00 | 92 | 1010.1 |
| 20260507003912 | 11 | 313 | 1.6 | 3.2 | 0.00 | 3.86 | 0.00 | 91 | 1010.1 |
| 20260507003803 | 11 | 316 | 1.6 | 3.2 | 0.00 | 3.86 | 0.00 | 91 | 1010.1 |
| 20260507003603 | 11 | 322 | 1.6 | 4.8 | 0.00 | 3.86 | 0.00 | 92 | 1010.0 |
| 20260507003504 | 11 | 327 | 1.6 | 4.8 | 0.00 | 3.86 | 0.00 | 92 | 1010.0 |
| 20260507003304 | 11 | 336 | 3.2 | 6.4 | 0.00 | 3.86 | 0.00 | 91 | 1010.0 |
| 20260507003104 | 11 | 339 | 3.2 | 6.4 | 0.00 | 3.86 | 0.00 | 91 | 1010.1 |
| 20260507002912 | 11 | 340 | 3.2 | 6.4 | 0.00 | 3.86 | 0.00 | 91 | 1010.1 |
| 20260507002804 | 11 | 341 | 3.2 | 6.4 | 0.00 | 3.86 | 0.00 | 91 | 1010.1 |
| 20260507002703 | 11 | 342 | 3.2 | 6.4 | 0.00 | 3.86 | 0.00 | 91 | 1010.1 |
| 20260507002604 | 11 | 344 | 3.2 | 6.4 | 0.00 | 3.86 | 0.00 | 91 | 1010.0 |
| 20260507002504 | 11 | 344 | 3.2 | 6.4 | 0.00 | 3.86 | 0.00 | 91 | 1010.2 |
| 20260507002306 | 11 | 338 | 3.2 | 6.4 | 0.00 | 3.86 | 0.00 | 91 | 1010.1 |
| 20260507002204 | 11 | 335 | 3.2 | 6.4 | 0.00 | 3.86 | 0.00 | 91 | 1010.1 |
| 20260507002005 | 11 | 334 | 3.2 | 4.8 | 0.00 | 3.86 | 0.00 | 91 | 1010.1 |
| 20260507001804 | 11 | 329 | 3.2 | 6.4 | 0.00 | 3.86 | 0.00 | 91 | 1010.2 |
| 20260507001704 | 11 | 326 | 3.2 | 6.4 | 0.00 | 3.86 | 0.00 | 91 | 1010.2 |
| 20260507001504 | 11 | 324 | 3.2 | 6.4 | 0.00 | 3.86 | 0.00 | 91 | 1010.2 |
| 20260507001404 | 11 | 325 | 3.2 | 6.4 | 0.00 | 3.86 | 0.00 | 91 | 1010.2 |
| 20260507001204 | 11 | 327 | 3.2 | 6.4 | 0.00 | 3.86 | 0.00 | 91 | 1010.1 |
| 20260507001104 | 11 | 327 | 3.2 | 6.4 | 0.00 | 3.86 | 0.00 | 91 | 1010.1 |
| 20260507001004 | 11 | 327 | 3.2 | 6.4 | 0.00 | 3.86 | 0.00 | 91 | 1010.1 |
| 20260507000804 | 11 | 331 | 1.6 | 4.8 | 0.00 | 3.86 | 0.00 | 91 | 1010.1 |
| 20260507000303 | 11 | 337 | 1.6 | 3.2 | 0.00 | 3.86 | 0.00 | 91 | 1010.2 |
| 20260507000205 | 11 | 337 | 0.0 | 3.2 | 0.00 | 3.86 | 0.00 | 91 | 1010.1 |
| 20260507000104 | 11 | 337 | 0.0 | 3.2 | 0.00 | 3.86 | 0.00 | 91 | 1010.1 |
| 20260507000004 | 11 | 337 | 1.6 | 3.2 | 0.00 | 3.86 | 0.00 | 91 | 1010.1 |
| 20260506235904 | 11 | 337 | 1.6 | 3.2 | 0.00 | 3.86 | 0.00 | 91 | 1010.1 |
| 20260506235804 | 11 | 337 | 1.6 | 3.2 | 0.00 | 3.86 | 0.00 | 91 | 1010.1 |
| 20260506235704 | 11 | 338 | 1.6 | 3.2 | 0.00 | 3.86 | 0.00 | 91 | 1010.2 |
| 20260506235611 | 11 | 338 | 1.6 | 3.2 | 0.00 | 3.86 | 0.00 | 91 | 1010.1 |
| 20260506235404 | 11 | 338 | 1.6 | 3.2 | 0.00 | 3.86 | 0.00 | 91 | 1010.1 |